KC5DAQ-22 Weather Reports


Display with metric or nautical units.
time (UTC)temp
F
wind
direction
speed
MPH
gust
MPH
rain 1hr
in
rain 24hr
in
rain mn
in
humidity
%
barometer
mb
20260906123050 78 25 2.0 5.0 0.00 0.00 0.00 97 1011.4
20260906122951 78 25 2.0 5.0 0.00 0.00 0.00 97 1011.4
20260906122849 78 24 2.0 5.0 0.00 0.00 0.00 97 1011.4
20260906122749 78 24 2.0 5.0 0.00 0.00 0.00 97 1011.4
20260906122651 78 23 2.0 5.0 0.00 0.00 0.00 97 1011.3
20260906122549 78 31 3.0 5.0 0.00 0.00 0.00 97 1011.3
20260906122449 78 17 4.0 5.0 0.00 0.00 0.00 97 1011.2
20260906122350 78 16 3.0 5.0 0.00 0.00 0.00 97 1011.1
20260906122250 78 14 3.0 5.0 0.00 0.00 0.00 97 1011.1
20260906122149 78 13 3.0 5.0 0.00 0.00 0.00 97 1011.1
20260906122049 78 14 3.0 5.0 0.00 0.00 0.00 97 1011.1
20260906121951 78 13 2.0 5.0 0.00 0.00 0.00 97 1011.1
20260906121850 77 13 2.0 4.0 0.00 0.00 0.00 96 1011.1
20260906121749 78 13 2.0 4.0 0.00 0.00 0.00 97 1011.0
20260906121651 78 13 1.0 4.0 0.00 0.00 0.00 96 1011.1
20260906121550 78 13 2.0 4.0 0.00 0.00 0.00 96 1011.0
20260906121450 78 13 2.0 4.0 0.00 0.00 0.00 96 1011.1
20260906121350 77 11 2.0 4.0 0.00 0.00 0.00 96 1011.1
20260906121250 77 13 2.0 4.0 0.00 0.00 0.00 96 1011.1
20260906121149 77 11 2.0 4.0 0.00 0.00 0.00 96 1011.0
20260906121049 77 11 2.0 4.0 0.00 0.00 0.00 96 1011.0
20260906120950 77 11 3.0 4.0 0.00 0.00 0.00 96 1011.1
20260906120851 77 11 2.0 4.0 0.00 0.00 0.00 96 1011.1
20260906120750 77 11 2.0 4.0 0.00 0.00 0.00 96 1011.1
20260906120649 78 11 2.0 4.0 0.00 0.00 0.00 96 1011.1
20260906120551 78 11 2.0 4.0 0.00 0.00 0.00 96 1011.1
20260906120449 78 11 1.0 3.0 0.00 0.00 0.00 96 1011.0
20260906120349 78 11 0.0 0.0 0.00 0.00 0.00 96 1011.0
20260906120250 78 11 0.0 0.0 0.00 0.00 0.00 96 1011.0
20260906120150 77 13 0.0 0.0 0.00 0.00 0.00 96 1011.0
20260906120049 77 11 0.0 0.0 0.00 0.00 0.00 96 1011.0
20260906115950 78 11 0.0 0.0 0.00 0.00 0.00 96 1011.0
20260906115850 77 14 0.0 0.0 0.00 0.00 0.00 96 1011.1
20260906115749 78 13 0.0 0.0 0.00 0.00 0.00 96 1011.0
20260906115649 77 13 0.0 0.0 0.00 0.00 0.00 96 1011.0
20260906115549 78 13 0.0 0.0 0.00 0.00 0.00 96 1011.0
20260906115449 78 13 0.0 0.0 0.00 0.00 0.00 96 1011.0
20260906115346 78 13 0.0 0.0 0.00 0.00 0.00 96 1011.1
20260906115247 78 14 0.0 0.0 0.00 0.00 0.00 96 1011.0
20260906115143 78 13 0.0 0.0 0.00 0.00 0.00 96 1011.0
20260906115043 78 13 0.0 0.0 0.00 0.00 0.00 96 1011.0
20260906114932 78 13 0.0 0.0 0.00 0.00 0.00 96 1011.0
20260906114831 78 13 0.0 0.0 0.00 0.00 0.00 96 1011.0
20260906114731 78 13 0.0 0.0 0.00 0.00 0.00 96 1011.0
20260906114632 77 13 0.0 0.0 0.00 0.00 0.00 96 1011.0
20260906114532 77 13 0.0 0.0 0.00 0.00 0.00 96 1011.0
20260906114431 78 13 0.0 0.0 0.00 0.00 0.00 96 1010.9
20260906114332 78 13 0.0 0.0 0.00 0.00 0.00 96 1010.9
20260906114232 78 13 0.0 0.0 0.00 0.00 0.00 96 1010.9
20260906114132 78 13 0.0 0.0 0.00 0.00 0.00 96 1010.8
20260906114033 77 13 0.0 0.0 0.00 0.00 0.00 96 1010.9
20260906113932 78 14 0.0 0.0 0.00 0.00 0.00 96 1010.8
20260906113832 77 13 0.0 0.0 0.00 0.00 0.00 96 1010.8
20260906113731 78 13 0.0 0.0 0.00 0.00 0.00 96 1010.8
20260906113631 78 13 0.0 0.0 0.00 0.00 0.00 96 1010.8
20260906113532 78 13 0.0 0.0 0.00 0.00 0.00 96 1010.8
20260906113431 78 13 0.0 0.0 0.00 0.00 0.00 96 1010.8
20260906113331 78 13 0.0 0.0 0.00 0.00 0.00 96 1010.9
20260906113232 78 13 0.0 0.0 0.00 0.00 0.00 96 1010.9
20260906113131 78 13 0.0 0.0 0.00 0.00 0.00 96 1010.8
20260906113031 78 13 0.0 0.0 0.00 0.00 0.00 96 1010.8
20260906112932 78 13 0.0 0.0 0.00 0.00 0.00 96 1010.8
20260906112830 78 13 0.0 0.0 0.00 0.00 0.00 96 1010.8
20260906112727 78 13 0.0 0.0 0.00 0.00 0.00 96 1010.8
20260906112627 78 13 0.0 0.0 0.00 0.00 0.00 96 1010.8
20260906112526 78 14 0.0 0.0 0.00 0.00 0.00 96 1010.8
20260906112422 78 13 0.0 0.0 0.00 0.00 0.00 96 1010.8
20260906112324 78 13 0.0 0.0 0.00 0.00 0.00 96 1010.8
20260906112222 78 14 0.0 0.0 0.00 0.00 0.00 96 1010.7
20260906112120 78 13 0.0 0.0 0.00 0.00 0.00 96 1010.8
20260906112018 78 13 0.0 0.0 0.00 0.00 0.00 96 1010.8
20260906111917 78 14 0.0 0.0 0.00 0.00 0.00 96 1010.7
20260906111814 78 13 0.0 0.0 0.00 0.00 0.00 96 1010.7
20260906111713 78 14 0.0 0.0 0.00 0.00 0.00 96 1010.6
20260906111612 78 14 0.0 0.0 0.00 0.00 0.00 96 1010.6
20260906111510 78 14 0.0 0.0 0.00 0.00 0.00 96 1010.7
20260906111406 78 13 0.0 0.0 0.00 0.00 0.00 96 1010.8
20260906111303 78 13 0.0 0.0 0.00 0.00 0.00 96 1010.6
20260906111204 78 13 0.0 0.0 0.00 0.00 0.00 96 1010.7
20260906111103 78 13 0.0 0.0 0.00 0.00 0.00 96 1010.7
20260906111003 78 13 0.0 0.0 0.00 0.00 0.00 96 1010.7
20260906110902 78 13 0.0 0.0 0.00 0.00 0.00 96 1010.7
20260906110802 78 13 0.0 0.0 0.00 0.00 0.00 96 1010.7
20260906110702 78 13 0.0 0.0 0.00 0.00 0.00 96 1010.8
20260906110603 78 13 0.0 0.0 0.00 0.00 0.00 96 1010.7
20260906110502 78 13 0.0 0.0 0.00 0.00 0.00 96 1010.7
20260906110402 78 13 0.0 0.0 0.00 0.00 0.00 96 1010.7
20260906110303 78 13 0.0 0.0 0.00 0.00 0.00 96 1010.7
20260906110202 78 13 0.0 0.0 0.00 0.00 0.00 96 1010.8
20260906110003 78 13 0.0 0.0 0.00 0.00 0.00 96 1010.7
20260906105903 78 13 0.0 0.0 0.00 0.00 0.00 96 1010.7
20260906105804 78 13 0.0 0.0 0.00 0.00 0.00 96 1010.6
20260906105703 78 13 0.0 0.0 0.00 0.00 0.00 96 1010.6
20260906105603 78 13 0.0 0.0 0.00 0.00 0.00 96 1010.6
20260906105502 78 13 0.0 0.0 0.00 0.00 0.00 96 1010.6
20260906105402 78 13 0.0 0.0 0.00 0.00 0.00 96 1010.7
20260906105306 78 13 0.0 0.0 0.00 0.00 0.00 96 1010.6
20260906105203 78 13 0.0 0.0 0.00 0.00 0.00 96 1010.6
20260906105103 78 13 0.0 0.0 0.00 0.00 0.00 96 1010.6
20260906105003 78 13 0.0 0.0 0.00 0.00 0.00 96 1010.5
20260906104903 78 13 0.0 0.0 0.00 0.00 0.00 96 1010.5
20260906104802 78 13 0.0 0.0 0.00 0.00 0.00 96 1010.6
20260906104703 78 13 0.0 2.0 0.00 0.00 0.00 96 1010.6
20260906104603 78 13 0.0 2.0 0.00 0.00 0.00 96 1010.5
20260906104502 78 13 0.0 2.0 0.00 0.00 0.00 96 1010.5
20260906104402 78 13 0.0 2.0 0.00 0.00 0.00 96 1010.5
20260906104304 78 13 0.0 2.0 0.00 0.00 0.00 96 1010.5
20260906104202 78 13 0.0 2.0 0.00 0.00 0.00 96 1010.5
20260906104101 78 13 0.0 2.0 0.00 0.00 0.00 96 1010.5
20260906104004 78 13 0.0 2.0 0.00 0.00 0.00 96 1010.5
20260906103902 78 13 0.0 3.0 0.00 0.00 0.00 96 1010.5
20260906103802 78 13 0.0 3.0 0.00 0.00 0.00 96 1010.5
20260906103702 78 13 0.0 3.0 0.00 0.00 0.00 96 1010.5
20260906103603 78 13 0.0 3.0 0.00 0.00 0.00 95 1010.4
20260906103503 78 13 0.0 3.0 0.00 0.00 0.00 96 1010.4
20260906103403 78 13 0.0 3.0 0.00 0.00 0.00 96 1010.4
20260906103304 78 13 1.0 3.0 0.00 0.00 0.00 95 1010.4
20260906103203 78 13 1.0 3.0 0.00 0.00 0.00 95 1010.3
20260906103102 78 13 1.0 3.0 0.00 0.00 0.00 95 1010.3
20260906103002 78 13 2.0 3.0 0.00 0.00 0.00 95 1010.4
20260906102903 78 13 2.0 3.0 0.00 0.00 0.00 95 1010.3
20260906102801 78 13 2.0 3.0 0.00 0.00 0.00 95 1010.3
20260906102702 78 13 2.0 3.0 0.00 0.00 0.00 95 1010.3
20260906102604 78 13 2.0 3.0 0.00 0.00 0.00 95 1010.3
20260906102503 78 13 1.0 3.0 0.00 0.00 0.00 95 1010.3
20260906102402 78 13 0.0 3.0 0.00 0.00 0.00 95 1010.3
20260906102305 78 13 0.0 2.0 0.00 0.00 0.00 95 1010.3
20260906102201 78 13 0.0 2.0 0.00 0.00 0.00 95 1010.4
20260906102102 78 13 0.0 2.0 0.00 0.00 0.00 95 1010.3
20260906102002 78 13 0.0 2.0 0.00 0.00 0.00 95 1010.3
20260906101903 78 13 1.0 2.0 0.00 0.00 0.00 95 1010.3
20260906101803 78 13 1.0 2.0 0.00 0.00 0.00 95 1010.3
20260906101702 78 13 1.0 3.0 0.00 0.00 0.00 95 1010.2
20260906101602 78 13 0.0 3.0 0.00 0.00 0.00 95 1010.3
20260906101504 78 13 1.0 3.0 0.00 0.00 0.00 95 1010.3
20260906101403 78 13 1.0 3.0 0.00 0.00 0.00 95 1010.3
20260906101303 78 13 1.0 3.0 0.00 0.00 0.00 95 1010.3
20260906101203 78 13 1.0 3.0 0.00 0.00 0.00 95 1010.3
20260906101103 78 13 1.0 3.0 0.00 0.00 0.00 95 1010.3
20260906101003 78 13 2.0 3.0 0.00 0.00 0.00 95 1010.2
20260906100903 78 13 2.0 3.0 0.00 0.00 0.00 95 1010.2
20260906100803 78 13 2.0 3.0 0.00 0.00 0.00 95 1010.2
20260906100703 78 13 2.0 2.0 0.00 0.00 0.00 95 1010.3
20260906100603 78 13 2.0 2.0 0.00 0.00 0.00 95 1010.3
20260906100504 78 13 2.0 2.0 0.00 0.00 0.00 95 1010.3
20260906100402 78 13 2.0 2.0 0.00 0.00 0.00 95 1010.3
20260906100302 78 13 1.0 2.0 0.00 0.00 0.00 95 1010.3
20260906100204 78 13 1.0 2.0 0.00 0.00 0.00 95 1010.3
20260906100003 78 13 0.0 2.0 0.00 0.00 0.00 95 1010.3
20260906095902 78 13 1.0 2.0 0.00 0.00 0.00 95 1010.4
20260906095803 78 13 0.0 2.0 0.00 0.00 0.00 95 1010.3
20260906095702 78 14 0.0 3.0 0.00 0.00 0.00 95 1010.3
20260906095602 78 13 0.0 3.0 0.00 0.00 0.00 95 1010.3
20260906095504 78 13 1.0 3.0 0.00 0.00 0.00 95 1010.3
20260906095403 78 13 0.0 3.0 0.00 0.00 0.00 95 1010.3
20260906095306 78 13 0.0 3.0 0.00 0.00 0.00 95 1010.2
20260906095204 78 13 0.0 3.0 0.00 0.00 0.00 95 1010.2
20260906095103 78 13 0.0 3.0 0.00 0.00 0.00 95 1010.2
20260906095003 78 13 1.0 3.0 0.00 0.00 0.00 95 1010.3
20260906094902 78 13 2.0 3.0 0.00 0.00 0.00 95 1010.2
20260906094803 78 13 2.0 3.0 0.00 0.00 0.00 95 1010.2
20260906094703 78 13 2.0 3.0 0.00 0.00 0.00 95 1010.3
20260906094604 78 13 2.0 4.0 0.00 0.00 0.00 95 1010.3
20260906094503 78 13 2.0 4.0 0.00 0.00 0.00 95 1010.3
20260906094403 78 13 1.0 4.0 0.00 0.00 0.00 95 1010.3
20260906094302 78 13 1.0 4.0 0.00 0.00 0.00 95 1010.3
20260906094202 78 13 2.0 4.0 0.00 0.00 0.00 95 1010.3
20260906094104 78 13 2.0 4.0 0.00 0.00 0.00 95 1010.4
20260906094003 78 13 1.0 4.0 0.00 0.00 0.00 95 1010.2
20260906093903 78 13 1.0 4.0 0.00 0.00 0.00 95 1010.2
20260906093804 78 14 2.0 4.0 0.00 0.00 0.00 95 1010.3
20260906093703 78 13 3.0 4.0 0.00 0.00 0.00 95 1010.2
20260906093602 78 13 2.0 4.0 0.00 0.00 0.00 95 1010.2
20260906093502 78 13 3.0 4.0 0.00 0.00 0.00 95 1010.3
20260906093403 78 13 3.0 4.0 0.00 0.00 0.00 95 1010.3
20260906093303 78 13 2.0 3.0 0.00 0.00 0.00 95 1010.3
20260906093202 78 18 2.0 4.0 0.00 0.00 0.00 95 1010.2
20260906093103 78 18 3.0 4.0 0.00 0.00 0.00 95 1010.3
20260906093002 79 18 2.0 4.0 0.00 0.00 0.00 95 1010.3
20260906092902 79 18 2.0 4.0 0.00 0.00 0.00 95 1010.3
20260906092804 79 18 2.0 4.0 0.00 0.00 0.00 95 1010.3
20260906092704 79 18 2.0 4.0 0.00 0.00 0.00 95 1010.3
20260906092602 79 18 2.0 4.0 0.00 0.00 0.00 94 1010.3
20260906092502 79 18 2.0 4.0 0.00 0.00 0.00 94 1010.3
20260906092403 79 18 2.0 4.0 0.00 0.00 0.00 94 1010.1
20260906092305 79 18 2.0 4.0 0.00 0.00 0.00 94 1010.1
20260906092202 79 18 1.0 4.0 0.00 0.00 0.00 94 1010.1
20260906092104 79 18 2.0 4.0 0.00 0.00 0.00 94 1010.1
20260906092002 79 18 2.0 4.0 0.00 0.00 0.00 94 1010.1
20260906091903 79 18 2.0 4.0 0.00 0.00 0.00 94 1010.1
20260906091802 79 18 1.0 4.0 0.00 0.00 0.00 94 1010.1
20260906091703 79 18 2.0 4.0 0.00 0.00 0.00 94 1010.2
20260906091602 79 20 2.0 4.0 0.00 0.00 0.00 94 1010.2
20260906091502 79 20 3.0 4.0 0.00 0.00 0.00 94 1010.1
20260906091403 79 18 3.0 4.0 0.00 0.00 0.00 94 1010.1
20260906091303 79 18 3.0 4.0 0.00 0.00 0.00 94 1010.1
20260906091202 79 14 3.0 4.0 0.00 0.00 0.00 94 1010.1
20260906091102 79 13 3.0 4.0 0.00 0.00 0.00 94 1010.1
20260906091003 79 13 3.0 4.0 0.00 0.00 0.00 94 1010.2
20260906090903 79 13 3.0 4.0 0.00 0.00 0.00 94 1010.1
20260906090802 79 13 3.0 4.0 0.00 0.00 0.00 94 1010.1
20260906090704 79 13 2.0 3.0 0.00 0.00 0.00 94 1010.1
20260906090603 79 13 1.0 3.0 0.00 0.00 0.00 94 1010.1
20260906090503 79 13 0.0 2.0 0.00 0.00 0.00 94 1010.1
20260906090404 79 13 1.0 2.0 0.00 0.00 0.00 94 1010.0
20260906090303 79 13 1.0 2.0 0.00 0.00 0.00 94 1010.1
20260906090202 79 13 1.0 3.0 0.00 0.00 0.00 94 1010.1
20260906090004 79 13 1.0 3.0 0.00 0.00 0.00 94 1010.1
20260906085903 79 13 1.0 3.0 0.00 0.00 0.00 94 1010.1
20260906085802 79 13 1.0 3.0 0.00 0.00 0.00 94 1010.1
20260906085704 79 13 2.0 3.0 0.00 0.00 0.00 94 1010.1
20260906085603 79 13 2.0 3.0 0.00 0.00 0.00 94 1010.1
20260906085503 79 13 1.0 3.0 0.00 0.00 0.00 94 1010.1
20260906085402 79 13 2.0 3.0 0.00 0.00 0.00 94 1010.0
20260906085306 79 13 2.0 3.0 0.00 0.00 0.00 94 1010.0
20260906085203 79 13 2.0 3.0 0.00 0.00 0.00 94 1010.1
20260906085102 79 13 2.0 3.0 0.00 0.00 0.00 94 1010.0
20260906085004 79 13 2.0 3.0 0.00 0.00 0.00 94 1010.1
20260906084902 79 13 2.0 3.0 0.00 0.00 0.00 94 1010.1
20260906084804 79 13 2.0 3.0 0.00 0.00 0.00 94 1010.0
20260906084703 79 13 2.0 3.0 0.00 0.00 0.00 94 1010.0
20260906084602 79 13 2.0 3.0 0.00 0.00 0.00 94 1010.0
20260906084505 79 13 1.0 3.0 0.00 0.00 0.00 94 1010.0
20260906084402 79 13 1.0 3.0 0.00 0.00 0.00 94 1010.0
20260906084303 79 13 0.0 0.0 0.00 0.00 0.00 94 1009.9
20260906084202 79 13 0.0 0.0 0.00 0.00 0.00 94 1009.9
20260906084102 79 13 0.0 0.0 0.00 0.00 0.00 94 1009.9
20260906084005 79 13 0.0 0.0 0.00 0.00 0.00 94 1009.9
20260906083903 79 13 0.0 0.0 0.00 0.00 0.00 94 1009.9
20260906083802 79 13 0.0 0.0 0.00 0.00 0.00 94 1009.9
20260906083703 79 13 0.0 0.0 0.00 0.00 0.00 94 1009.9
20260906083602 79 13 0.0 0.0 0.00 0.00 0.00 94 1009.9
20260906083502 79 13 0.0 1.0 0.00 0.00 0.00 94 1009.9
20260906083402 79 13 0.0 2.0 0.00 0.00 0.00 94 1009.9
20260906083303 79 13 0.0 2.0 0.00 0.00 0.00 94 1009.9
20260906083202 79 13 0.0 2.0 0.00 0.00 0.00 94 1010.0
20260906083102 79 13 0.0 2.0 0.00 0.00 0.00 94 1010.1
20260906083004 79 13 0.0 2.0 0.00 0.00 0.00 94 1010.0
20260906082903 79 13 0.0 2.0 0.00 0.00 0.00 94 1010.0
20260906082803 79 13 0.0 2.0 0.00 0.00 0.00 94 1010.0
20260906082702 79 13 0.0 3.0 0.00 0.00 0.00 94 1010.0
20260906082603 79 13 1.0 3.0 0.00 0.00 0.00 94 1010.0
20260906082502 79 13 1.0 3.0 0.00 0.00 0.00 94 1010.0
20260906082403 79 13 0.0 3.0 0.00 0.00 0.00 94 1010.0
20260906082305 79 13 0.0 4.0 0.00 0.00 0.00 94 1010.1
20260906082203 79 13 0.0 4.0 0.00 0.00 0.00 94 1010.1
20260906082102 79 13 0.0 4.0 0.00 0.00 0.00 94 1010.1
20260906082003 79 13 1.0 4.0 0.00 0.00 0.00 94 1010.1
20260906081904 79 13 2.0 4.0 0.00 0.00 0.00 93 1010.2
20260906081801 79 13 2.0 4.0 0.00 0.00 0.00 93 1010.2
20260906081703 79 13 2.0 4.0 0.00 0.00 0.00 93 1010.1
20260906081603 79 13 2.0 4.0 0.00 0.00 0.00 93 1010.2
20260906081503 79 13 3.0 4.0 0.00 0.00 0.00 93 1010.2
20260906081403 79 13 3.0 4.0 0.00 0.00 0.00 93 1010.2
20260906081301 79 13 3.0 4.0 0.00 0.00 0.00 93 1010.3
20260906081202 79 13 3.0 4.0 0.00 0.00 0.00 93 1010.2
20260906081102 79 13 3.0 4.0 0.00 0.00 0.00 93 1010.2
20260906081005 79 13 3.0 4.0 0.00 0.00 0.00 93 1010.2
20260906080905 79 13 2.0 4.0 0.00 0.00 0.00 93 1010.2
20260906080802 79 13 2.0 4.0 0.00 0.00 0.00 93 1010.2
20260906080703 79 13 2.0 4.0 0.00 0.00 0.00 93 1010.2
20260906080604 79 13 2.0 4.0 0.00 0.00 0.00 93 1010.2
20260906080503 79 13 2.0 3.0 0.00 0.00 0.00 93 1010.2
20260906080403 79 13 2.0 3.0 0.00 0.00 0.00 93 1010.2
20260906080301 79 13 2.0 3.0 0.00 0.00 0.00 93 1010.2
20260906080204 79 13 2.0 3.0 0.00 0.00 0.00 93 1010.2
20260906080003 79 13 2.0 3.0 0.00 0.00 0.00 93 1010.2
20260906075903 79 13 2.0 4.0 0.00 0.00 0.00 93 1010.1
20260906075804 79 13 2.0 4.0 0.00 0.00 0.00 93 1010.1
20260906075702 79 13 2.0 4.0 0.00 0.00 0.00 93 1010.1
20260906075602 79 13 2.0 4.0 0.00 0.00 0.00 93 1010.1
20260906075503 79 13 1.0 4.0 0.00 0.00 0.00 93 1010.2
20260906075402 79 13 2.0 4.0 0.00 0.00 0.00 93 1010.1
20260906075306 79 13 2.0 4.0 0.00 0.00 0.00 93 1010.2
20260906075203 79 13 2.0 5.0 0.00 0.00 0.00 93 1010.2
20260906075102 80 13 2.0 5.0 0.00 0.00 0.00 93 1010.1
20260906075004 79 13 2.0 5.0 0.00 0.00 0.00 93 1010.2
20260906074904 79 13 2.0 5.0 0.00 0.00 0.00 93 1010.2
20260906074803 79 13 3.0 5.0 0.00 0.00 0.00 93 1010.3
20260906074702 79 13 3.0 5.0 0.00 0.00 0.00 93 1010.3
20260906074602 79 13 3.0 5.0 0.00 0.00 0.00 93 1010.3
20260906074503 80 13 3.0 5.0 0.00 0.00 0.00 93 1010.3
20260906074402 79 13 3.0 5.0 0.00 0.00 0.00 93 1010.3
20260906074303 80 14 3.0 5.0 0.00 0.00 0.00 93 1010.2
20260906074204 80 14 3.0 4.0 0.00 0.00 0.00 93 1010.3
20260906074103 80 14 3.0 4.0 0.00 0.00 0.00 93 1010.3
20260906074003 80 17 2.0 3.0 0.00 0.00 0.00 93 1010.4
20260906073902 80 18 2.0 3.0 0.00 0.00 0.00 93 1010.4
20260906073802 80 18 2.0 3.0 0.00 0.00 0.00 93 1010.3
20260906073702 80 18 2.0 3.0 0.00 0.00 0.00 92 1010.4
20260906073602 80 18 2.0 3.0 0.00 0.00 0.00 93 1010.4
20260906073504 80 18 1.0 3.0 0.00 0.00 0.00 93 1010.4
20260906073403 80 21 0.0 2.0 0.00 0.00 0.00 92 1010.4
20260906073302 80 21 0.0 0.0 0.00 0.00 0.00 92 1010.4
20260906073202 80 21 0.0 0.0 0.00 0.00 0.00 92 1010.4
20260906073103 80 21 0.0 0.0 0.00 0.00 0.00 92 1010.4
20260906073004 80 21 0.0 0.0 0.00 0.00 0.00 92 1010.4
20260906072903 80 21 0.0 2.0 0.00 0.00 0.00 92 1010.4
20260906072804 80 21 0.0 2.0 0.00 0.00 0.00 92 1010.4
20260906072702 80 21 0.0 2.0 0.00 0.00 0.00 92 1010.4
20260906072603 80 21 0.0 2.0 0.00 0.00 0.00 92 1010.4
20260906072502 80 21 0.0 2.0 0.00 0.00 0.00 92 1010.4
20260906072403 80 21 0.0 2.0 0.00 0.00 0.00 92 1010.4
20260906072306 80 23 1.0 2.0 0.00 0.00 0.00 92 1010.4
20260906072203 80 23 1.0 2.0 0.00 0.00 0.00 92 1010.3
20260906072103 80 23 1.0 2.0 0.00 0.00 0.00 92 1010.4
20260906071947 80 21 1.0 2.0 0.00 0.00 0.00 92 1010.4
20260906071845 80 21 2.0 2.0 0.00 0.00 0.00 92 1010.4
20260906071744 80 21 1.0 2.0 0.00 0.00 0.00 92 1010.3
20260906071643 80 21 0.0 2.0 0.00 0.00 0.00 92 1010.4
20260906071543 80 48 0.0 0.0 0.00 0.00 0.00 92 1010.4
20260906071444 80 48 0.0 0.0 0.00 0.00 0.00 92 1010.3
20260906071343 80 48 0.0 0.0 0.00 0.00 0.00 92 1010.3
20260906071243 80 48 0.0 0.0 0.00 0.00 0.00 92 1010.4
20260906071142 80 48 0.0 0.0 0.00 0.00 0.00 91 1010.4
20260906071042 80 48 0.0 0.0 0.00 0.00 0.00 91 1010.4
20260906070942 80 48 0.0 0.0 0.00 0.00 0.00 91 1010.3
20260906070843 80 48 0.0 0.0 0.00 0.00 0.00 91 1010.4
20260906070743 80 48 0.0 0.0 0.00 0.00 0.00 91 1010.4
20260906070642 80 48 0.0 0.0 0.00 0.00 0.00 91 1010.3
20260906070542 80 48 0.0 0.0 0.00 0.00 0.00 91 1010.4
20260906070442 80 48 0.0 0.0 0.00 0.00 0.00 91 1010.5
20260906070343 80 48 0.0 0.0 0.00 0.00 0.00 91 1010.5
20260906070244 80 48 0.0 0.0 0.00 0.00 0.00 91 1010.5
20260906070142 80 48 0.0 0.0 0.00 0.00 0.00 91 1010.4
20260906070044 80 48 0.0 0.0 0.00 0.00 0.00 91 1010.5
20260906065943 80 48 0.0 1.0 0.00 0.00 0.00 91 1010.4
20260906065843 80 48 0.0 2.0 0.00 0.00 0.00 91 1010.4
20260906065743 80 48 0.0 2.0 0.00 0.00 0.00 91 1010.4
20260906065642 80 48 0.0 2.0 0.00 0.00 0.00 91 1010.4
20260906065542 80 48 0.0 2.0 0.00 0.00 0.00 91 1010.4
20260906065444 80 48 0.0 2.0 0.00 0.00 0.00 92 1010.4
20260906065344 80 48 0.0 2.0 0.00 0.00 0.00 92 1010.3
20260906065242 80 48 0.0 2.0 0.00 0.00 0.00 91 1010.4
20260906065142 80 48 0.0 2.0 0.00 0.00 0.00 91 1010.4
20260906065043 80 48 1.0 2.0 0.00 0.00 0.00 92 1010.4
20260906064943 80 48 1.0 2.0 0.00 0.00 0.00 91 1010.4
20260906064842 80 47 1.0 2.0 0.00 0.00 0.00 91 1010.4
20260906064741 80 47 1.0 2.0 0.00 0.00 0.00 92 1010.4
20260906064644 80 47 0.0 2.0 0.00 0.00 0.00 92 1010.5
20260906064542 80 45 0.0 0.0 0.00 0.00 0.00 91 1010.5
20260906064442 80 45 0.0 0.0 0.00 0.00 0.00 92 1010.4
20260906064343 80 45 0.0 0.0 0.00 0.00 0.00 92 1010.5
20260906064243 80 45 0.0 0.0 0.00 0.00 0.00 91 1010.4
20260906064143 80 45 0.0 0.0 0.00 0.00 0.00 91 1010.4
20260906064043 80 45 0.0 0.0 0.00 0.00 0.00 91 1010.4
20260906063943 80 45 0.0 0.0 0.00 0.00 0.00 92 1010.4
20260906063841 80 45 0.0 0.0 0.00 0.00 0.00 92 1010.4
20260906063742 80 45 0.0 1.0 0.00 0.00 0.00 92 1010.3
20260906063641 80 45 0.0 2.0 0.00 0.00 0.00 92 1010.3
20260906063542 80 45 0.0 2.0 0.00 0.00 0.00 92 1010.4
20260906063441 80 45 0.0 2.0 0.00 0.00 0.00 92 1010.3
20260906063342 80 45 0.0 2.0 0.00 0.00 0.00 92 1010.4
20260906063243 80 45 0.0 2.0 0.00 0.00 0.00 92 1010.3
20260906063142 80 45 0.0 2.0 0.00 0.00 0.00 92 1010.3
20260906063042 80 45 0.0 2.0 0.00 0.00 0.00 92 1010.2
20260906062942 80 44 0.0 2.0 0.00 0.00 0.00 92 1010.3
20260906062841 80 44 1.0 2.0 0.00 0.00 0.00 92 1010.3
20260906062742 80 44 0.0 2.0 0.00 0.00 0.00 92 1010.2
20260906062641 80 44 0.0 1.0 0.00 0.00 0.00 92 1010.3
20260906062542 80 42 0.0 0.0 0.00 0.00 0.00 92 1010.3
20260906062441 80 44 0.0 0.0 0.00 0.00 0.00 92 1010.3
20260906062342 80 44 0.0 0.0 0.00 0.00 0.00 92 1010.3
20260906062243 80 44 0.0 0.0 0.00 0.00 0.00 92 1010.4
20260906062142 80 44 0.0 0.0 0.00 0.00 0.00 92 1010.4
20260906062042 80 45 0.0 0.0 0.00 0.00 0.00 92 1010.4
20260906061942 80 45 0.0 0.0 0.00 0.00 0.00 92 1010.3
20260906061842 80 45 0.0 0.0 0.00 0.00 0.00 92 1010.4
20260906061741 80 44 0.0 0.0 0.00 0.00 0.00 92 1010.5
20260906061642 80 45 0.0 0.0 0.00 0.00 0.00 91 1010.5
20260906061542 80 45 0.0 0.0 0.00 0.00 0.00 91 1010.4
20260906061441 80 45 0.0 0.0 0.00 0.00 0.00 91 1010.4
20260906061341 80 44 0.0 0.0 0.00 0.00 0.00 91 1010.4
20260906061242 80 45 0.0 0.0 0.00 0.00 0.00 91 1010.4
20260906061141 80 45 0.0 0.0 0.00 0.00 0.00 91 1010.4
20260906061041 80 44 0.0 0.0 0.00 0.00 0.00 91 1010.4
20260906060942 80 45 0.0 0.0 0.00 0.00 0.00 91 1010.4
20260906060842 80 44 0.0 0.0 0.00 0.00 0.00 91 1010.5
20260906060741 80 44 0.0 0.0 0.00 0.00 0.00 91 1010.4
20260906060641 80 44 0.0 0.0 0.00 0.00 0.00 91 1010.5
20260906060542 80 44 0.0 0.0 0.00 0.00 0.00 91 1010.5
20260906060442 80 44 0.0 0.0 0.00 0.00 0.00 91 1010.4
20260906060341 80 45 0.0 0.0 0.00 0.00 0.00 91 1010.5
20260906060240 80 44 0.0 0.0 0.00 0.00 0.00 91 1010.5
20260906060143 80 44 0.0 0.0 0.00 0.00 0.00 91 1010.5
20260906060042 80 44 0.0 0.0 0.00 0.00 0.00 91 1010.5
20260906055941 80 44 0.0 0.0 0.00 0.00 0.00 91 1010.5
20260906055842 80 44 0.0 0.0 0.00 0.00 0.00 91 1010.6
20260906055740 80 44 0.0 0.0 0.00 0.00 0.00 91 1010.5
20260906055643 80 44 0.0 1.0 0.00 0.00 0.00 91 1010.5
20260906055541 80 44 0.0 2.0 0.00 0.00 0.00 91 1010.5
20260906055443 80 44 0.0 2.0 0.00 0.00 0.00 91 1010.6
20260906055341 80 44 0.0 2.0 0.00 0.00 0.00 91 1010.6
20260906055240 80 44 0.0 2.0 0.00 0.00 0.00 91 1010.6
20260906055141 80 44 0.0 2.0 0.00 0.00 0.00 91 1010.6
20260906055041 80 44 0.0 2.0 0.00 0.00 0.00 91 1010.6
20260906054941 80 42 0.0 2.0 0.00 0.00 0.00 91 1010.6
20260906054841 80 42 0.0 2.0 0.00 0.00 0.00 91 1010.5
20260906054741 80 42 0.0 2.0 0.00 0.00 0.00 91 1010.7
20260906054640 80 42 0.0 2.0 0.00 0.00 0.00 91 1010.6
20260906054540 80 42 0.0 2.0 0.00 0.00 0.00 91 1010.5
20260906054440 80 44 0.0 2.0 0.00 0.00 0.00 91 1010.6
20260906054341 80 44 0.0 2.0 0.00 0.00 0.00 91 1010.6
20260906054240 80 44 0.0 2.0 0.00 0.00 0.00 91 1010.5
20260906054140 80 42 0.0 2.0 0.00 0.00 0.00 91 1010.6
20260906054041 80 44 0.0 2.0 0.00 0.00 0.00 91 1010.6
20260906053940 80 44 1.0 2.0 0.00 0.00 0.00 91 1010.6
20260906053840 80 44 1.0 2.0 0.00 0.00 0.00 91 1010.5
20260906053742 80 44 1.0 2.0 0.00 0.00 0.00 91 1010.5
20260906053640 80 44 0.0 2.0 0.00 0.00 0.00 91 1010.6
20260906053540 80 44 0.0 2.0 0.00 0.00 0.00 91 1010.6
20260906053440 80 44 0.0 2.0 0.00 0.00 0.00 91 1010.6
20260906053342 80 44 1.0 2.0 0.00 0.00 0.00 91 1010.5
20260906053241 80 42 0.0 2.0 0.00 0.00 0.00 91 1010.5
20260906053140 80 44 1.0 2.0 0.00 0.00 0.00 91 1010.5
20260906053041 80 44 1.0 2.0 0.00 0.00 0.00 91 1010.5
20260906052940 80 44 0.0 2.0 0.00 0.00 0.00 91 1010.5
20260906052840 80 44 0.0 2.0 0.00 0.00 0.00 91 1010.4
20260906052740 80 44 0.0 2.0 0.00 0.00 0.00 91 1010.5
20260906052641 80 44 0.0 2.0 0.00 0.00 0.00 91 1010.4
20260906052542 80 44 0.0 2.0 0.00 0.00 0.00 91 1010.5
20260906052440 80 44 0.0 2.0 0.00 0.00 0.00 91 1010.5
20260906052341 80 44 0.0 2.0 0.00 0.00 0.00 91 1010.5
20260906052240 80 44 0.0 2.0 0.00 0.00 0.00 91 1010.5
20260906052141 80 44 1.0 2.0 0.00 0.00 0.00 91 1010.5
20260906052041 80 44 1.0 2.0 0.00 0.00 0.00 91 1010.5
20260906051942 80 45 1.0 2.0 0.00 0.00 0.00 91 1010.5
20260906051840 80 44 0.0 2.0 0.00 0.00 0.00 91 1010.4
20260906051740 80 44 1.0 2.0 0.00 0.00 0.00 91 1010.4
20260906051641 80 44 0.0 2.0 0.00 0.00 0.00 91 1010.4
20260906051540 80 45 0.0 2.0 0.00 0.00 0.00 91 1010.4
20260906051440 80 44 1.0 2.0 0.00 0.00 0.00 91 1010.4
20260906051340 80 45 0.0 2.0 0.00 0.00 0.00 91 1010.4
20260906051241 80 44 0.0 2.0 0.00 0.00 0.00 91 1010.4
20260906051140 80 45 0.0 2.0 0.00 0.00 0.00 91 1010.5
20260906051040 80 44 0.0 2.0 0.00 0.00 0.00 91 1010.4
20260906050941 80 44 1.0 2.0 0.00 0.00 0.00 90 1010.5
20260906050840 80 44 1.0 2.0 0.00 0.00 0.00 91 1010.5
20260906050739 80 44 0.0 2.0 0.00 0.00 0.00 90 1010.4
20260906050639 80 45 1.0 2.0 0.00 0.00 0.00 90 1010.4
20260906050542 80 45 1.0 2.0 0.00 0.00 0.00 90 1010.3
20260906050440 80 44 1.0 2.0 0.00 0.00 0.00 90 1010.3
20260906050339 80 44 1.0 2.0 0.00 0.00 0.00 90 1010.4
20260906050241 80 45 0.0 2.0 0.00 0.00 0.00 90 1010.4
20260906050140 80 45 0.0 2.0 0.00 0.00 0.00 90 1010.4
20260906050041 80 45 0.0 2.0 0.00 0.00 0.00 90 1010.4
20260906045939 80 45 0.0 2.0 0.00 0.00 0.00 90 1010.5
20260906045839 80 44 0.0 2.0 0.00 0.00 0.00 90 1010.5
20260906045739 80 45 0.0 2.0 0.00 0.00 0.00 90 1010.5
20260906045639 80 45 0.0 2.0 0.00 0.00 0.00 90 1010.5
20260906045540 80 45 0.0 2.0 0.00 0.00 0.00 90 1010.4
20260906045440 80 45 0.0 2.0 0.00 0.00 0.00 90 1010.5
20260906045341 80 45 0.0 2.0 0.00 0.00 0.00 90 1010.5
20260906045240 80 45 0.0 2.0 0.00 0.00 0.00 90 1010.4
20260906045139 80 47 0.0 2.0 0.00 0.00 0.00 90 1010.4
20260906045039 80 45 0.0 2.0 0.00 0.00 0.00 90 1010.5
20260906044939 80 45 1.0 2.0 0.00 0.00 0.00 90 1010.4
20260906044840 80 45 1.0 2.0 0.00 0.00 0.00 90 1010.4
20260906044739 80 45 1.0 3.0 0.00 0.00 0.00 90 1010.4
20260906044639 80 47 1.0 3.0 0.00 0.00 0.00 90 1010.5
20260906044540 80 45 1.0 3.0 0.00 0.00 0.00 90 1010.5
20260906044440 80 45 1.0 3.0 0.00 0.00 0.00 90 1010.5
20260906044339 80 45 1.0 3.0 0.00 0.00 0.00 90 1010.5
20260906044239 80 45 0.0 3.0 0.00 0.00 0.00 90 1010.5
20260906044139 80 47 0.0 3.0 0.00 0.00 0.00 90 1010.4
20260906044039 80 45 0.0 3.0 0.00 0.00 0.00 90 1010.4
20260906043940 80 45 1.0 3.0 0.00 0.00 0.00 90 1010.4
20260906043840 80 47 1.0 3.0 0.00 0.00 0.00 90 1010.4
20260906043740 80 47 1.0 3.0 0.00 0.00 0.00 90 1010.5
20260906043639 80 41 1.0 3.0 0.00 0.00 0.00 90 1010.5
20260906043540 80 32 1.0 3.0 0.00 0.00 0.00 90 1010.4
20260906043440 80 32 1.0 3.0 0.00 0.00 0.00 90 1010.4
20260906043338 80 32 1.0 3.0 0.00 0.00 0.00 90 1010.5
20260906043239 80 32 2.0 3.0 0.00 0.00 0.00 90 1010.6
20260906043140 80 32 1.0 3.0 0.00 0.00 0.00 90 1010.6
20260906043039 80 32 2.0 3.0 0.00 0.00 0.00 90 1010.6
20260906042939 80 32 2.0 3.0 0.00 0.00 0.00 90 1010.6
20260906042840 80 31 1.0 3.0 0.00 0.00 0.00 90 1010.6
20260906042740 80 31 1.0 3.0 0.00 0.00 0.00 90 1010.7
20260906042638 80 31 2.0 3.0 0.00 0.00 0.00 90 1010.7
20260906042539 80 31 2.0 3.0 0.00 0.00 0.00 90 1010.7
20260906042441 80 31 2.0 3.0 0.00 0.00 0.00 90 1010.7
20260906042339 80 31 1.0 3.0 0.00 0.00 0.00 90 1010.7
20260906042239 80 31 0.0 3.0 0.00 0.00 0.00 90 1010.6
20260906042139 80 31 0.0 4.0 0.00 0.00 0.00 90 1010.6
20260906042039 80 31 0.0 4.0 0.00 0.00 0.00 90 1010.7
20260906041938 80 31 0.0 4.0 0.00 0.00 0.00 90 1010.7
20260906041840 80 31 1.0 5.0 0.00 0.00 0.00 90 1010.6
20260906041739 80 31 2.0 5.0 0.00 0.00 0.00 90 1010.7
20260906041638 80 31 2.0 5.0 0.00 0.00 0.00 90 1010.7
20260906041538 80 31 2.0 5.0 0.00 0.00 0.00 90 1010.6
20260906041438 80 31 2.0 5.0 0.00 0.00 0.00 90 1010.7
20260906041339 80 31 2.0 5.0 0.00 0.00 0.00 90 1010.7
20260906041239 80 31 3.0 5.0 0.00 0.00 0.00 90 1010.7
20260906041138 80 42 3.0 6.0 0.00 0.00 0.00 90 1010.6
20260906041040 80 35 4.0 6.0 0.00 0.00 0.00 90 1010.6
20260906040938 80 35 4.0 6.0 0.00 0.00 0.00 90 1010.6
20260906040840 80 44 3.0 6.0 0.00 0.00 0.00 90 1010.6
20260906040739 80 35 3.0 6.0 0.00 0.00 0.00 90 1010.6
20260906040638 80 38 3.0 6.0 0.00 0.00 0.00 90 1010.5
20260906040539 80 41 3.0 6.0 0.00 0.00 0.00 90 1010.6
20260906040438 80 37 4.0 6.0 0.00 0.00 0.00 90 1010.5
20260906040340 80 38 4.0 6.0 0.00 0.00 0.00 90 1010.6
20260906040238 80 35 4.0 6.0 0.00 0.00 0.00 90 1010.5
20260906040138 80 35 3.0 5.0 0.00 0.00 0.00 90 1010.5
20260906040038 80 41 3.0 5.0 0.00 0.00 0.00 90 1010.5
20260906035939 80 39 2.0 5.0 0.00 0.00 0.00 90 1010.5
20260906035836 80 35 2.0 5.0 0.00 0.00 0.00 90 1010.5
20260906035735 80 35 3.0 5.0 0.00 0.00 0.00 90 1010.5
20260906035634 80 39 4.0 5.0 0.00 0.00 0.00 90 1010.6
20260906035532 80 37 3.0 4.0 0.00 0.00 0.00 90 1010.5
20260906035432 80 39 1.0 4.0 0.00 0.00 0.00 90 1010.6
20260906035331 80 27 0.0 0.0 0.00 0.00 0.00 90 1010.6
20260906035234 80 27 0.0 0.0 0.00 0.00 0.00 90 1010.7
20260906035132 80 27 0.0 0.0 0.00 0.00 0.00 90 1010.7
20260906035031 80 27 0.0 0.0 0.00 0.00 0.00 90 1010.6
20260906034931 80 27 0.0 0.0 0.00 0.00 0.00 90 1010.7
20260906034832 80 27 0.0 0.0 0.00 0.00 0.00 90 1010.6
20260906034731 80 27 0.0 0.0 0.00 0.00 0.00 90 1010.5
20260906034632 80 27 0.0 0.0 0.00 0.00 0.00 90 1010.6
20260906034532 80 27 0.0 0.0 0.00 0.00 0.00 90 1010.6
20260906034432 80 27 0.0 0.0 0.00 0.00 0.00 90 1010.6
20260906034332 80 27 0.0 0.0 0.00 0.00 0.00 90 1010.6
20260906034231 80 27 0.0 0.0 0.00 0.00 0.00 90 1010.6
20260906034132 80 27 0.0 0.0 0.00 0.00 0.00 90 1010.6
20260906034029 80 27 0.0 0.0 0.00 0.00 0.00 90 1010.6
20260906033930 80 27 0.0 0.0 0.00 0.00 0.00 90 1010.6
20260906033825 80 27 0.0 0.0 0.00 0.00 0.00 90 1010.6
20260906033724 80 27 0.0 0.0 0.00 0.00 0.00 90 1010.7
20260906033623 80 28 0.0 0.0 0.00 0.00 0.00 90 1010.7
20260906033523 80 27 0.0 0.0 0.00 0.00 0.00 90 1010.6
20260906033420 80 28 0.0 0.0 0.00 0.00 0.00 90 1010.7
20260906033320 80 28 0.0 0.0 0.00 0.00 0.00 90 1010.7
20260906033219 80 28 0.0 0.0 0.00 0.00 0.00 90 1010.7
20260906033117 80 28 0.0 0.0 0.00 0.00 0.00 90 1010.6
20260906033007 80 28 0.0 0.0 0.00 0.00 0.00 90 1010.6
20260906032905 80 28 0.0 0.0 0.00 0.00 0.00 90 1010.7
20260906032802 80 28 0.0 0.0 0.00 0.00 0.00 89 1010.7
20260906032704 80 28 0.0 0.0 0.00 0.00 0.00 89 1010.7
20260906032603 80 28 0.0 1.0 0.00 0.00 0.00 89 1010.7
20260906032502 80 28 0.0 2.0 0.00 0.00 0.00 89 1010.7
20260906032404 80 27 0.0 4.0 0.00 0.00 0.00 89 1010.7
20260906032305 80 28 0.0 6.0 0.00 0.00 0.00 89 1010.7
20260906032203 80 28 0.0 6.0 0.00 0.00 0.00 90 1010.7
20260906032102 80 27 0.0 6.0 0.00 0.00 0.00 90 1010.7
20260906032003 80 27 0.0 6.0 0.00 0.00 0.00 90 1010.6
20260906031902 80 27 0.0 6.0 0.00 0.00 0.00 90 1010.7
20260906031802 80 30 0.0 6.0 0.00 0.00 0.00 90 1010.6
20260906031702 80 30 1.0 6.0 0.00 0.00 0.00 90 1010.7
20260906031602 80 30 3.0 6.0 0.00 0.00 0.00 90 1010.7
20260906031504 80 30 4.0 6.0 0.00 0.00 0.00 90 1010.6
20260906031403 80 27 4.0 6.0 0.00 0.00 0.00 90 1010.6
20260906031301 80 27 4.0 6.0 0.00 0.00 0.00 90 1010.6
20260906031203 80 31 3.0 4.0 0.00 0.00 0.00 90 1010.6
20260906031102 80 24 2.0 4.0 0.00 0.00 0.00 90 1010.6
20260906031004 80 18 2.0 4.0 0.00 0.00 0.00 90 1010.6
20260906030902 80 18 2.0 4.0 0.00 0.00 0.00 90 1010.5
20260906030803 80 18 2.0 4.0 0.00 0.00 0.00 90 1010.5
20260906030701 80 14 2.0 4.0 0.00 0.00 0.00 90 1010.5
20260906030600 80 14 2.0 4.0 0.00 0.00 0.00 90 1010.5
20260906030459 80 14 2.0 4.0 0.00 0.00 0.00 90 1010.5
20260906030356 80 14 3.0 4.0 0.00 0.00 0.00 91 1010.5
20260906030254 80 14 2.0 4.0 0.00 0.00 0.00 91 1010.6
20260906030154 80 11 2.0 4.0 0.00 0.00 0.00 91 1010.6
20260906030052 80 11 2.0 4.0 0.00 0.00 0.00 90 1010.6
20260906025951 80 11 2.0 4.0 0.00 0.00 0.00 90 1010.6
20260906025849 80 11 2.0 4.0 0.00 0.00 0.00 90 1010.6
20260906025746 80 11 3.0 4.0 0.00 0.00 0.00 90 1010.6
20260906025647 80 11 3.0 4.0 0.00 0.00 0.00 90 1010.6
20260906025543 80 11 3.0 4.0 0.00 0.00 0.00 90 1010.6
20260906025444 80 10 3.0 4.0 0.00 0.00 0.00 90 1010.6
20260906025341 80 10 3.0 4.0 0.00 0.00 0.00 90 1010.5
20260906025238 80 10 3.0 4.0 0.00 0.00 0.00 90 1010.6
20260906025137 80 10 2.0 4.0 0.00 0.00 0.00 90 1010.5
20260906025037 80 10 2.0 4.0 0.00 0.00 0.00 90 1010.5
20260906024937 80 10 3.0 4.0 0.00 0.00 0.00 90 1010.5
20260906024839 80 10 3.0 4.0 0.00 0.00 0.00 90 1010.4
20260906024737 80 10 3.0 4.0 0.00 0.00 0.00 90 1010.4
20260906024637 80 10 3.0 4.0 0.00 0.00 0.00 90 1010.3
20260906024537 80 10 2.0 4.0 0.00 0.00 0.00 90 1010.3
20260906024436 80 10 2.0 4.0 0.00 0.00 0.00 90 1010.3
20260906024338 80 10 2.0 4.0 0.00 0.00 0.00 90 1010.2
20260906024239 80 10 3.0 4.0 0.00 0.00 0.00 90 1010.3
20260906024137 80 10 3.0 4.0 0.00 0.00 0.00 90 1010.3
20260906024038 80 10 3.0 3.0 0.00 0.00 0.00 89 1010.2
20260906023937 80 10 2.0 3.0 0.00 0.00 0.00 89 1010.3
20260906023837 80 16 2.0 3.0 0.00 0.00 0.00 89 1010.2
20260906023738 80 16 2.0 4.0 0.00 0.00 0.00 89 1010.2
20260906023638 80 16 2.0 4.0 0.00 0.00 0.00 89 1010.3
20260906023536 80 16 2.0 4.0 0.00 0.00 0.00 89 1010.2
20260906023436 80 16 2.0 4.0 0.00 0.00 0.00 89 1010.2
20260906023337 80 16 2.0 4.0 0.00 0.00 0.00 89 1010.2
20260906023236 80 17 2.0 4.0 0.00 0.00 0.00 89 1010.1
20260906023137 80 16 2.0 4.0 0.00 0.00 0.00 89 1010.1
20260906023037 80 16 2.0 4.0 0.00 0.00 0.00 89 1010.1
20260906022937 80 16 2.0 4.0 0.00 0.00 0.00 89 1010.1
20260906022836 80 16 2.0 4.0 0.00 0.00 0.00 89 1010.0
20260906022736 80 17 2.0 4.0 0.00 0.00 0.00 89 1010.1
20260906022638 80 16 2.0 4.0 0.00 0.00 0.00 89 1010.1
20260906022536 80 17 2.0 4.0 0.00 0.00 0.00 89 1010.0
20260906022436 80 17 2.0 4.0 0.00 0.00 0.00 88 1010.0
20260906022338 80 17 1.0 4.0 0.00 0.00 0.00 88 1010.0
20260906022236 80 17 2.0 4.0 0.00 0.00 0.00 88 1009.9
20260906022136 80 17 2.0 4.0 0.00 0.00 0.00 88 1009.9
20260906022037 80 17 2.0 4.0 0.00 0.00 0.00 88 1009.9
20260906021938 80 17 3.0 4.0 0.00 0.00 0.00 88 1009.9
20260906021837 80 17 2.0 4.0 0.00 0.00 0.00 88 1009.8
20260906021736 80 17 2.0 4.0 0.00 0.00 0.00 88 1009.9
20260906021637 81 28 2.0 4.0 0.00 0.00 0.00 88 1009.8
20260906021536 81 28 2.0 4.0 0.00 0.00 0.00 88 1009.8
20260906021436 81 28 2.0 4.0 0.00 0.00 0.00 88 1009.8
20260906021338 81 30 2.0 4.0 0.00 0.00 0.00 88 1009.8
20260906021238 81 28 3.0 4.0 0.00 0.00 0.00 88 1009.8
20260906021135 80 28 2.0 6.0 0.00 0.00 0.00 88 1009.9
20260906021035 80 25 2.0 6.0 0.00 0.00 0.00 88 1009.9
20260906020936 80 25 2.0 6.0 0.00 0.00 0.00 88 1009.9
20260906020836 80 25 2.0 6.0 0.00 0.00 0.00 88 1009.8
20260906020734 80 27 2.0 6.0 0.00 0.00 0.00 88 1009.8
20260906020632 80 25 2.0 6.0 0.00 0.00 0.00 88 1009.8
20260906020532 80 24 3.0 6.0 0.00 0.00 0.00 89 1009.9
20260906020431 80 25 3.0 6.0 0.00 0.00 0.00 89 1009.9
20260906020332 80 25 3.0 6.0 0.00 0.00 0.00 88 1009.9
20260906020233 80 25 4.0 6.0 0.00 0.00 0.00 89 1010.0
20260906020131 80 25 4.0 6.0 0.00 0.00 0.00 89 1010.0
20260906020031 80 28 5.0 6.0 0.00 0.00 0.00 88 1010.0
20260906015933 80 25 5.0 6.0 0.00 0.00 0.00 88 1010.0
20260906015832 80 24 4.0 6.0 0.00 0.00 0.00 88 1010.0
20260906015731 80 30 3.0 6.0 0.00 0.00 0.00 88 1010.0
20260906015631 80 31 2.0 5.0 0.00 0.01 0.00 88 1009.9
20260906015532 80 18 3.0 5.0 0.00 0.01 0.00 88 1009.9
20260906015434 80 17 3.0 5.0 0.00 0.01 0.00 88 1009.9
20260906015332 81 17 3.0 5.0 0.00 0.01 0.00 88 1009.9
20260906015232 81 17 3.0 5.0 0.00 0.01 0.00 88 1009.9
20260906015131 81 27 2.0 5.0 0.00 0.01 0.00 88 1009.9
20260906015033 81 30 3.0 6.0 0.00 0.01 0.00 88 1009.9
20260906014934 81 30 4.0 6.0 0.00 0.01 0.00 88 1010.0
20260906014831 81 25 3.0 7.0 0.00 0.01 0.00 88 1009.9
20260906014730 81 24 4.0 7.0 0.00 0.01 0.00 88 1009.9
20260906014630 81 23 4.0 7.0 0.00 0.01 0.00 88 1010.0
20260906014533 81 28 4.0 7.0 0.00 0.01 0.00 88 1009.9
20260906014431 81 27 5.0 7.0 0.00 0.01 0.00 88 1010.0
20260906014330 81 20 4.0 7.0 0.00 0.01 0.00 88 1010.0
20260906014231 81 28 4.0 7.0 0.00 0.01 0.00 88 1010.0
20260906014112 81 25 5.0 7.0 0.00 0.01 0.00 88 1009.9
20260906014011 81 27 5.0 9.0 0.00 0.01 0.00 88 1009.9
20260906013910 80 21 4.0 9.0 0.00 0.01 0.00 88 1009.9
20260906013808 81 25 5.0 9.0 0.00 0.01 0.00 88 1009.9
20260906013707 81 31 5.0 9.0 0.00 0.01 0.00 88 1009.8
20260906013605 80 31 4.0 9.0 0.00 0.01 0.00 89 1009.8
20260906013505 80 24 3.0 9.0 0.00 0.01 0.00 89 1009.8
20260906013403 80 25 4.0 9.0 0.00 0.01 0.00 89 1009.7
20260906013304 80 34 5.0 9.0 0.00 0.01 0.00 89 1009.7
20260906013202 80 24 5.0 9.0 0.00 0.01 0.00 89 1009.7
20260906013102 80 23 5.0 9.0 0.00 0.01 0.00 89 1009.7
20260906013003 80 25 4.0 7.0 0.00 0.01 0.00 89 1009.6
20260906012904 80 24 5.0 7.0 0.00 0.01 0.00 89 1009.7
20260906012804 80 32 5.0 9.0 0.00 0.01 0.00 89 1009.7
20260906012703 80 28 5.0 9.0 0.00 0.01 0.00 89 1009.6
20260906012603 80 23 5.0 9.0 0.00 0.01 0.00 89 1009.7
20260906012503 80 28 5.0 9.0 0.00 0.01 0.00 89 1009.6
20260906012402 80 30 6.0 10.0 0.00 0.01 0.00 89 1009.6
20260906012306 80 25 6.0 10.0 0.00 0.01 0.00 89 1009.6
20260906012203 80 23 6.0 10.0 0.00 0.01 0.00 89 1009.7
20260906012102 80 28 6.0 10.0 0.00 0.01 0.00 89 1009.7
20260906012002 80 27 7.0 10.0 0.00 0.01 0.00 89 1009.7
20260906011904 80 27 6.0 10.0 0.00 0.01 0.00 89 1009.6
20260906011803 80 25 4.0 10.0 0.00 0.01 0.00 89 1009.6
20260906011703 80 18 3.0 10.0 0.00 0.01 0.00 89 1009.6
20260906011603 80 28 5.0 10.0 0.00 0.01 0.00 89 1009.6
20260906011504 80 25 7.0 10.0 0.00 0.01 0.00 89 1009.6
20260906011403 80 30 5.0 10.0 0.00 0.01 0.00 89 1009.5
20260906011302 80 30 4.0 10.0 0.00 0.01 0.00 89 1009.5
20260906011204 80 18 4.0 10.0 0.00 0.01 0.00 89 1009.5
20260906011102 80 27 5.0 10.0 0.00 0.01 0.00 89 1009.5
20260906011003 80 30 4.0 10.0 0.00 0.01 0.00 89 1009.5
20260906010903 80 24 4.0 10.0 0.00 0.01 0.00 89 1009.5
20260906010803 80 30 6.0 10.0 0.00 0.01 0.00 89 1009.5
20260906010701 80 25 5.0 10.0 0.00 0.01 0.00 89 1009.5
20260906010602 80 24 5.0 10.0 0.00 0.01 0.00 89 1009.5
20260906010505 80 32 6.0 10.0 0.00 0.01 0.00 89 1009.6
20260906010404 80 17 5.0 10.0 0.00 0.01 0.00 89 1009.6
20260906010302 80 32 5.0 10.0 0.00 0.01 0.00 89 1009.5
20260906010204 80 24 5.0 10.0 0.00 0.01 0.00 89 1009.5
20260906010103 80 30 5.0 10.0 0.00 0.01 0.00 90 1009.6
20260906010004 80 28 6.0 10.0 0.00 0.01 0.00 89 1009.6
20260906005902 80 31 6.0 10.0 0.00 0.01 0.00 89 1009.6
20260906005804 80 23 5.0 7.0 0.00 0.01 0.00 90 1009.6
20260906005702 80 28 5.0 7.0 0.00 0.01 0.00 90 1009.6
20260906005602 80 30 5.0 7.0 0.00 0.01 0.00 90 1009.5
20260906005505 80 28 5.0 9.0 0.00 0.01 0.00 89 1009.5
20260906005402 80 16 4.0 9.0 0.00 0.01 0.00 89 1009.6
20260906005306 80 18 6.0 9.0 0.00 0.01 0.00 89 1009.6
20260906005203 80 20 5.0 9.0 0.00 0.01 0.00 89 1009.6
20260906005103 81 21 3.0 9.0 0.00 0.01 0.00 89 1009.6
20260906005003 81 23 3.0 9.0 0.00 0.01 0.00 89 1009.6
20260906004903 81 21 5.0 9.0 0.00 0.01 0.00 89 1009.6
20260906004804 81 14 5.0 9.0 0.00 0.01 0.00 89 1009.5
20260906004702 81 23 6.0 9.0 0.00 0.01 0.00 89 1009.6
20260906004602 81 24 5.0 9.0 0.00 0.01 0.00 89 1009.6
20260906004504 81 18 4.0 6.0 0.00 0.01 0.00 89 1009.7
20260906004403 81 17 5.0 6.0 0.00 0.01 0.00 89 1009.6
20260906004302 81 16 5.0 6.0 0.00 0.01 0.00 89 1009.6
20260906004204 81 24 5.0 6.0 0.00 0.01 0.00 89 1009.7
20260906004103 81 14 4.0 6.0 0.00 0.01 0.00 89 1009.7
20260906004002 81 21 4.0 6.0 0.00 0.01 0.00 89 1009.7
20260906003901 81 16 4.0 9.0 0.00 0.01 0.00 88 1009.7
20260906003804 81 17 3.0 9.0 0.00 0.01 0.00 88 1009.7
20260906003702 81 20 4.0 10.0 0.00 0.01 0.00 88 1009.7
20260906003603 81 17 4.0 10.0 0.00 0.01 0.00 88 1009.6
20260906003503 81 17 4.0 11.0 0.00 0.01 0.00 88 1009.6
20260906003403 81 17 4.0 11.0 0.00 0.01 0.00 88 1009.7
20260906003304 81 17 4.0 11.0 0.00 0.01 0.00 88 1009.7
20260906003202 81 7 4.0 11.0 0.00 0.01 0.00 88 1009.7
20260906003102 81 17 6.0 11.0 0.00 0.01 0.00 88 1009.6
20260906003002 81 13 7.0 11.0 0.00 0.01 0.00 88 1009.7
20260906002902 81 28 7.0 11.0 0.00 0.01 0.00 88 1009.7
20260906002804 81 25 6.0 11.0 0.00 0.01 0.00 88 1009.6
20260906002704 81 20 7.0 11.0 0.00 0.01 0.00 88 1009.6
20260906002602 81 18 6.0 11.0 0.00 0.01 0.00 88 1009.7
20260906002502 81 27 5.0 9.0 0.00 0.01 0.00 88 1009.6
20260906002402 81 31 5.0 11.0 0.00 0.01 0.00 88 1009.6
20260906002306 81 28 5.0 12.0 0.00 0.01 0.00 88 1009.6
20260906002203 81 21 6.0 12.0 0.00 0.01 0.00 88 1009.6
20260906002103 81 23 6.0 12.0 0.00 0.01 0.00 87 1009.6
20260906002003 81 21 6.0 12.0 0.00 0.01 0.00 87 1009.7
20260906001903 81 30 6.0 12.0 0.00 0.01 0.00 87 1009.7
20260906001803 81 18 5.0 12.0 0.00 0.01 0.00 87 1009.6
20260906001702 82 18 5.0 13.0 0.00 0.01 0.00 87 1009.6
20260906001603 82 27 6.0 13.0 0.00 0.01 0.00 87 1009.7
20260906001503 82 34 8.0 13.0 0.00 0.01 0.00 87 1009.7
20260906001403 82 27 7.0 13.0 0.00 0.01 0.00 87 1009.7
20260906001302 82 32 6.0 13.0 0.00 0.01 0.00 86 1009.7
20260906001201 82 27 5.0 13.0 0.00 0.01 0.00 86 1009.8
20260906001104 82 21 6.0 13.0 0.00 0.01 0.00 86 1009.8
20260906001002 82 30 8.0 13.0 0.00 0.01 0.00 86 1009.8
20260906000903 82 32 7.0 14.0 0.00 0.01 0.00 86 1009.8
20260906000803 82 27 8.0 16.0 0.00 0.01 0.00 86 1009.8
20260906000704 82 24 8.0 16.0 0.00 0.01 0.00 85 1009.9
20260906000603 82 28 9.0 16.0 0.00 0.01 0.00 85 1009.9
20260906000503 83 21 9.0 16.0 0.00 0.01 0.00 85 1010.0
20260906000403 83 30 9.0 16.0 0.00 0.01 0.00 85 1009.9
20260906000303 83 86 8.0 16.0 0.00 0.01 0.00 85 1010.0
20260906000204 83 100 8.0 16.0 0.00 0.01 0.00 85 1009.9
20260906000104 83 82 10.0 16.0 0.00 0.01 0.00 85 1009.8
20260906000004 83 80 10.0 16.0 0.00 0.01 0.00 85 1009.9
20260905235902 83 76 9.0 16.0 0.00 0.01 0.00 85 1009.8
20260905235802 83 62 7.0 14.0 0.00 0.01 0.00 85 1009.8
20260905235703 83 62 7.0 14.0 0.00 0.01 0.00 84 1009.8
20260905235603 83 59 8.0 14.0 0.00 0.01 0.00 84 1009.9
20260905235503 83 76 9.0 14.0 0.00 0.01 0.00 84 1009.9
20260905235402 83 59 9.0 14.0 0.00 0.01 0.00 84 1009.9
20260905235306 83 94 10.0 14.0 0.00 0.01 0.00 84 1009.9
20260905235202 84 76 9.0 13.0 0.00 0.01 0.00 84 1010.0
20260905235102 84 85 9.0 13.0 0.00 0.01 0.00 84 1009.9
20260905235003 84 96 10.0 13.0 0.00 0.01 0.00 84 1009.9
20260905234903 84 92 9.0 13.0 0.00 0.01 0.00 84 1009.9
20260905234803 84 78 7.0 13.0 0.00 0.01 0.00 84 1009.8
20260905234703 84 86 6.0 14.0 0.00 0.01 0.00 84 1009.9
20260905234602 84 107 7.0 14.0 0.00 0.01 0.00 84 1009.9
20260905234502 84 116 7.0 14.0 0.00 0.01 0.00 83 1009.9
20260905234402 84 76 7.0 14.0 0.00 0.01 0.00 83 1009.8
20260905234303 84 71 9.0 14.0 0.00 0.01 0.00 83 1009.9
20260905234204 84 92 9.0 14.0 0.00 0.01 0.00 83 1010.0
20260905234103 84 90 7.0 14.0 0.00 0.01 0.00 83 1010.0
20260905234004 84 85 8.0 15.0 0.00 0.01 0.00 83 1010.0
20260905233903 85 89 9.0 15.0 0.00 0.01 0.00 82 1010.0
20260905233803 85 92 8.0 15.0 0.00 0.01 0.00 82 1010.2
20260905233704 85 102 8.0 15.0 0.00 0.01 0.00 82 1010.2
20260905233603 85 65 9.0 15.0 0.00 0.01 0.00 82 1010.2
20260905233503 85 62 9.0 15.0 0.00 0.01 0.00 82 1010.2
20260905233403 85 102 8.0 15.0 0.00 0.01 0.00 81 1010.3
20260905233304 85 56 9.0 15.0 0.00 0.01 0.00 81 1010.3
20260905233203 85 44 10.0 15.0 0.00 0.01 0.00 80 1010.4
20260905233102 86 66 11.0 15.0 0.00 0.01 0.00 80 1010.4
20260905233004 86 83 11.0 15.0 0.00 0.01 0.00 80 1010.3
20260905232903 86 54 10.0 15.0 0.00 0.01 0.00 80 1010.3
20260905232802 86 125 11.0 15.0 0.00 0.01 0.00 79 1010.3
20260905232702 86 39 11.0 15.0 0.00 0.01 0.00 78 1010.3
20260905232603 86 13 10.0 15.0 0.00 0.01 0.00 78 1010.3
20260905232503 86 16 11.0 15.0 0.00 0.01 0.00 77 1010.2
20260905232403 86 28 10.0 15.0 0.00 0.01 0.00 77 1010.2
20260905232306 86 21 9.0 15.0 0.00 0.01 0.00 77 1010.2
20260905232202 87 18 9.0 15.0 0.00 0.01 0.00 76 1010.2
20260905232101 87 6 8.0 14.0 0.00 0.01 0.00 75 1010.1
20260905232002 87 16 8.0 14.0 0.00 0.01 0.00 75 1010.2
20260905231903 87 6 9.0 14.0 0.00 0.01 0.00 75 1010.1
20260905231802 87 0 8.0 11.0 0.00 0.01 0.00 75 1010.1
20260905231702 87 20 7.0 11.0 0.00 0.01 0.00 75 1010.1
20260905231603 87 16 6.0 11.0 0.00 0.01 0.00 74 1010.1
20260905231502 88 16 6.0 11.0 0.00 0.01 0.00 74 1010.0
20260905231401 88 0 5.0 11.0 0.00 0.01 0.00 73 1010.0
20260905231303 88 37 4.0 11.0 0.00 0.01 0.00 73 1010.0
20260905231202 88 17 5.0 11.0 0.00 0.01 0.00 73 1009.9
20260905231103 88 44 6.0 11.0 0.00 0.01 0.00 72 1009.9
20260905231001 88 27 6.0 11.0 0.00 0.01 0.00 72 1009.8
20260905230903 89 51 6.0 11.0 0.00 0.01 0.00 71 1009.8
20260905230803 89 30 5.0 9.0 0.00 0.01 0.00 71 1009.8
20260905230702 89 87 4.0 9.0 0.00 0.01 0.00 71 1009.8
20260905230603 89 82 4.0 9.0 0.00 0.01 0.00 71 1009.8
20260905230503 89 58 4.0 9.0 0.00 0.01 0.00 71 1009.7
20260905230403 89 62 5.0 10.0 0.00 0.01 0.00 70 1009.7
20260905230302 89 45 5.0 10.0 0.00 0.01 0.00 70 1009.7
20260905230204 89 92 6.0 10.0 0.00 0.01 0.00 70 1009.8
20260905230002 89 61 5.0 10.0 0.00 0.01 0.00 70 1009.7
20260905225903 89 78 5.0 10.0 0.00 0.01 0.00 69 1009.7
20260905225803 89 90 5.0 10.0 0.00 0.01 0.00 69 1009.7
20260905225702 89 56 6.0 10.0 0.00 0.01 0.00 69 1009.6
20260905225602 89 71 6.0 10.0 0.00 0.01 0.00 69 1009.7
20260905225504 89 79 7.0 11.0 0.00 0.01 0.00 69 1009.7
20260905225401 89 82 6.0 11.0 0.00 0.01 0.00 69 1009.6
20260905225305 89 99 5.0 11.0 0.00 0.01 0.00 69 1009.6
20260905225203 89 124 5.0 11.0 0.00 0.01 0.00 69 1009.6
20260905225102 89 93 5.0 11.0 0.00 0.01 0.00 69 1009.6
20260905225002 89 87 5.0 11.0 0.00 0.01 0.00 69 1009.6
20260905224903 89 82 6.0 11.0 0.00 0.01 0.00 70 1009.6
20260905224803 89 92 6.0 11.0 0.00 0.01 0.00 70 1009.5
20260905224702 89 89 7.0 11.0 0.00 0.01 0.00 70 1009.5
20260905224602 89 97 6.0 11.0 0.00 0.01 0.00 71 1009.5
20260905224503 89 76 5.0 7.0 0.00 0.01 0.00 71 1009.4
20260905224401 89 78 5.0 7.0 0.00 0.01 0.00 71 1009.4
20260905224259 89 104 6.0 9.0 0.00 0.01 0.00 71 1009.4
20260905224158 89 87 6.0 9.0 0.00 0.01 0.00 70 1009.4
20260905224057 89 80 6.0 9.0 0.00 0.01 0.00 70 1009.4
20260905223953 89 79 5.0 9.0 0.00 0.01 0.00 70 1009.3
20260905223854 89 82 5.0 9.0 0.00 0.01 0.00 70 1009.4
20260905223751 90 114 5.0 9.0 0.00 0.01 0.00 70 1009.5
20260905223650 90 90 6.0 11.0 0.00 0.01 0.00 70 1009.4
20260905223549 90 123 5.0 11.0 0.00 0.01 0.00 70 1009.4
20260905223448 90 78 6.0 11.0 0.00 0.01 0.00 70 1009.4
20260905223346 90 94 7.0 11.0 0.00 0.01 0.00 70 1009.6
20260905223246 90 80 6.0 11.0 0.00 0.01 0.00 70 1009.5
20260905223144 90 104 5.0 11.0 0.00 0.01 0.00 70 1009.6
20260905223041 90 87 5.0 11.0 0.00 0.01 0.00 70 1009.5
20260905222937 90 69 6.0 11.0 0.00 0.01 0.00 70 1009.5
20260905222835 90 83 7.0 11.0 0.00 0.01 0.00 70 1009.6
20260905222735 90 66 6.0 11.0 0.00 0.01 0.00 70 1009.6
20260905222632 90 80 6.0 11.0 0.00 0.01 0.00 70 1009.6
20260905222532 90 85 6.0 11.0 0.00 0.01 0.00 70 1009.7
20260905222431 90 92 7.0 11.0 0.00 0.01 0.00 70 1009.6
20260905222331 90 100 8.0 11.0 0.00 0.01 0.00 70 1009.6
20260905222231 90 99 7.0 11.0 0.00 0.01 0.00 70 1009.6
20260905222131 90 90 5.0 9.0 0.00 0.01 0.00 70 1009.6
20260905222031 90 69 4.0 7.0 0.00 0.01 0.00 71 1009.5
20260905221931 90 56 4.0 7.0 0.00 0.01 0.00 70 1009.5
20260905221831 90 52 4.0 7.0 0.00 0.01 0.00 70 1009.5
20260905221733 90 71 4.0 7.0 0.00 0.01 0.00 70 1009.5
20260905221633 90 109 4.0 7.0 0.00 0.01 0.00 70 1009.5
20260905221532 90 133 3.0 7.0 0.00 0.01 0.00 71 1009.5
20260905221432 89 96 4.0 7.0 0.00 0.01 0.00 71 1009.4
20260905221331 90 94 5.0 7.0 0.00 0.01 0.00 71 1009.4
20260905221231 89 94 5.0 7.0 0.00 0.01 0.00 72 1009.3
20260905221131 89 92 5.0 7.0 0.00 0.01 0.00 71 1009.3
20260905221032 89 66 4.0 7.0 0.00 0.01 0.00 72 1009.4
20260905220931 89 49 4.0 7.0 0.00 0.01 0.00 72 1009.4
20260905220831 89 90 5.0 7.0 0.00 0.01 0.00 73 1009.3
20260905220732 89 51 2.0 5.0 0.00 0.01 0.00 73 1009.3
20260905220632 88 49 0.0 4.0 0.00 0.01 0.00 74 1009.4
20260905220531 88 0 0.0 0.0 0.00 0.01 0.00 74 1009.3
20260905220431 88 347 0.0 0.0 0.00 0.01 0.00 75 1009.3
20260905220331 88 347 0.0 0.0 0.00 0.01 0.00 75 1009.4
20260905220232 87 347 0.0 0.0 0.00 0.01 0.00 75 1009.5
20260905220131 87 347 0.0 0.0 0.00 0.01 0.00 75 1009.4
20260905220032 87 347 0.0 0.0 0.00 0.01 0.00 76 1009.4
20260905215932 87 347 0.0 0.0 0.00 0.01 0.00 76 1009.5
20260905215831 87 347 0.0 0.0 0.00 0.01 0.00 76 1009.5
20260905215731 87 347 0.0 0.0 0.00 0.01 0.00 76 1009.4
20260905215631 87 347 0.0 2.0 0.00 0.01 0.00 76 1009.5
20260905215532 87 347 0.0 3.0 0.00 0.01 0.00 76 1009.5
20260905215432 87 345 0.0 3.0 0.00 0.01 0.00 76 1009.5
20260905215333 87 327 0.0 3.0 0.00 0.01 0.00 76 1009.5
20260905215232 87 327 0.0 3.0 0.00 0.01 0.00 77 1009.5
20260905215130 87 327 0.0 3.0 0.00 0.01 0.00 77 1009.5
20260905215032 87 327 0.0 4.0 0.00 0.01 0.00 77 1009.5
20260905214931 87 327 0.0 4.0 0.00 0.01 0.00 76 1009.4
20260905214832 87 327 1.0 4.0 0.00 0.01 0.00 76 1009.4
20260905214731 87 327 1.0 4.0 0.00 0.01 0.00 76 1009.3
20260905214632 87 327 2.0 4.0 0.00 0.01 0.00 77 1009.3
20260905214532 87 327 1.0 4.0 0.00 0.01 0.00 77 1009.3
20260905214431 87 327 2.0 5.0 0.00 0.01 0.00 77 1009.3
20260905214333 87 326 2.0 5.0 0.00 0.01 0.00 77 1009.3
20260905214231 87 326 2.0 5.0 0.00 0.01 0.00 77 1009.3
20260905214131 87 326 2.0 5.0 0.00 0.01 0.00 77 1009.3
20260905214031 87 326 2.0 5.0 0.00 0.01 0.00 77 1009.3
20260905213931 87 326 2.0 5.0 0.00 0.02 0.00 77 1009.3
20260905213830 87 326 2.0 5.0 0.00 0.02 0.00 77 1009.4
20260905213730 87 326 2.0 5.0 0.00 0.04 0.00 77 1009.4
20260905213632 87 326 3.0 5.0 0.00 0.05 0.00 77 1009.4
20260905213531 87 326 3.0 5.0 0.00 0.06 0.00 77 1009.5
20260905213432 87 303 3.0 5.0 0.00 0.06 0.00 76 1009.5
20260905213332 87 303 3.0 5.0 0.00 0.06 0.00 76 1009.5
20260905213232 87 303 2.0 5.0 0.00 0.06 0.00 75 1009.6
20260905213132 87 309 0.0 0.0 0.00 0.06 0.00 75 1009.6
20260905213031 87 316 0.0 0.0 0.00 0.06 0.00 74 1009.6
20260905212932 87 316 0.0 0.0 0.00 0.06 0.00 74 1009.6
20260905212831 87 309 0.0 0.0 0.00 0.06 0.00 74 1009.6
20260905212732 87 309 0.0 1.0 0.00 0.06 0.00 73 1009.6
20260905212632 87 314 0.0 1.0 0.00 0.06 0.00 73 1009.6
20260905212532 87 314 0.0 1.0 0.00 0.06 0.00 73 1009.7
20260905212432 87 314 0.0 1.0 0.00 0.06 0.00 73 1009.6
20260905212332 87 319 0.0 1.0 0.00 0.06 0.00 73 1009.7
20260905212232 87 319 0.0 1.0 0.00 0.06 0.00 73 1009.6
20260905212131 87 319 0.0 1.0 0.00 0.06 0.00 73 1009.7
20260905212031 87 320 0.0 1.0 0.00 0.06 0.00 73 1009.7
20260905211932 87 334 0.0 1.0 0.00 0.06 0.00 73 1009.6
20260905211831 87 334 0.0 1.0 0.00 0.06 0.00 73 1009.7
20260905211732 87 334 0.0 0.0 0.00 0.06 0.00 72 1009.7
20260905211631 87 334 0.0 0.0 0.00 0.06 0.00 72 1009.7
20260905211532 88 334 0.0 0.0 0.00 0.06 0.00 71 1009.7
20260905211431 88 334 0.0 0.0 0.00 0.06 0.00 72 1009.7
20260905211331 88 334 0.0 0.0 0.00 0.06 0.00 71 1009.7
20260905211232 88 334 0.0 0.0 0.00 0.06 0.00 71 1009.6
20260905211131 88 334 0.0 0.0 0.00 0.06 0.00 71 1009.6
20260905211030 87 334 0.0 0.0 0.00 0.06 0.00 71 1009.6
20260905210932 87 334 0.0 2.0 0.00 0.06 0.00 71 1009.6
20260905210831 87 334 0.0 2.0 0.00 0.06 0.00 71 1009.6
20260905210731 87 334 0.0 3.0 0.00 0.06 0.00 71 1009.7
20260905210631 87 334 0.0 3.0 0.00 0.06 0.00 71 1009.7
20260905210531 87 334 0.0 3.0 0.00 0.06 0.00 71 1009.7
20260905210431 87 334 0.0 3.0 0.00 0.06 0.00 71 1009.7
20260905210332 87 334 0.0 5.0 0.00 0.06 0.00 71 1009.8
20260905210234 87 334 0.0 6.0 0.00 0.06 0.00 72 1009.8
20260905210132 87 333 1.0 6.0 0.00 0.06 0.00 72 1009.8
20260905210029 86 333 1.0 9.0 0.00 0.06 0.00 72 1009.8
20260905205929 86 333 2.0 10.0 0.00 0.06 0.00 72 1009.8
20260905205829 86 333 2.0 10.0 0.00 0.06 0.00 73 1009.8
20260905205729 86 333 1.0 10.0 0.00 0.06 0.00 73 1009.9
20260905205629 86 333 2.0 10.0 0.00 0.06 0.00 73 1009.9
20260905205529 86 333 3.0 10.0 0.00 0.06 0.00 73 1009.8
20260905205428 85 331 4.0 10.0 0.00 0.06 0.00 73 1009.8
20260905205330 85 323 4.0 10.0 0.00 0.06 0.00 74 1010.0
20260905205228 85 305 5.0 10.0 0.00 0.06 0.00 74 1009.9
20260905205128 85 290 6.0 10.0 0.00 0.06 0.00 74 1010.0
20260905205028 85 299 5.0 10.0 0.00 0.06 0.00 75 1009.9
20260905204928 85 298 5.0 13.0 0.00 0.06 0.00 74 1010.0
20260905204829 85 288 6.0 14.0 0.00 0.06 0.00 74 1010.0
20260905204728 85 290 7.0 17.0 0.00 0.06 0.00 74 1009.9
20260905204630 85 298 7.0 18.0 0.00 0.06 0.00 74 1009.9
20260905204528 85 290 7.0 18.0 0.00 0.06 0.00 74 1009.8
20260905204430 85 292 6.0 18.0 0.00 0.06 0.00 74 1009.8
20260905204329 85 330 6.0 18.0 0.00 0.06 0.00 75 1009.9
20260905204228 85 305 6.0 18.0 0.00 0.06 0.00 75 1009.8
20260905204128 85 289 8.0 18.0 0.00 0.06 0.00 74 1009.8
20260905204028 85 271 11.0 18.0 0.00 0.06 0.00 74 1009.8
20260905203928 85 293 13.0 18.0 0.00 0.06 0.00 74 1009.8
20260905203830 85 300 13.0 18.0 0.00 0.06 0.00 74 1009.8
20260905203729 85 307 11.0 18.0 0.00 0.06 0.00 74 1009.8
20260905203629 86 307 10.0 16.0 0.00 0.06 0.00 73 1009.9
20260905203530 86 298 6.0 13.0 0.00 0.06 0.00 73 1009.9
20260905203428 87 306 4.0 9.0 0.00 0.06 0.00 73 1009.9
20260905203328 87 309 4.0 9.0 0.00 0.06 0.00 73 1009.9
20260905203229 87 300 5.0 10.0 0.00 0.06 0.00 73 1010.0
20260905203128 87 300 4.0 10.0 0.00 0.06 0.00 73 1009.9
20260905203028 87 324 2.0 10.0 0.00 0.06 0.00 74 1009.9
20260905202929 87 258 3.0 10.0 0.00 0.06 0.00 73 1010.0
20260905202828 88 257 4.0 10.0 0.00 0.06 0.00 73 1010.0
20260905202728 88 319 4.0 10.0 0.00 0.06 0.00 72 1010.0
20260905202630 89 309 4.0 10.0 0.00 0.06 0.00 72 1010.0
20260905202529 89 285 4.0 10.0 0.00 0.06 0.00 71 1010.1
20260905202427 90 290 6.0 10.0 0.00 0.06 0.00 70 1010.1
20260905202328 91 290 4.0 10.0 0.00 0.06 0.00 67 1010.1
20260905202229 91 276 3.0 10.0 0.00 0.06 0.00 67 1010.1
20260905202129 91 237 3.0 10.0 0.00 0.06 0.00 67 1010.0
20260905202028 91 162 3.0 10.0 0.00 0.06 0.00 67 1010.0
20260905201927 91 171 2.0 10.0 0.00 0.06 0.00 67 1010.0
20260905201829 91 169 3.0 10.0 0.00 0.06 0.00 67 1009.9
20260905201728 91 199 5.0 10.0 0.00 0.06 0.00 67 1010.0
20260905201628 91 111 6.0 10.0 0.00 0.06 0.00 67 1010.0
20260905201527 91 111 6.0 10.0 0.00 0.06 0.00 67 1009.9
20260905201427 91 66 6.0 10.0 0.00 0.06 0.00 67 1009.9
20260905201326 91 117 6.0 10.0 0.00 0.06 0.00 67 1010.0
20260905201225 91 107 6.0 10.0 0.00 0.06 0.00 67 1009.9
20260905201123 91 113 6.0 11.0 0.00 0.06 0.00 67 1009.9
20260905201022 91 109 5.0 11.0 0.00 0.06 0.00 68 1009.9
20260905200920 91 94 4.0 11.0 0.00 0.06 0.00 68 1009.9
20260905200818 91 102 4.0 11.0 0.00 0.06 0.00 68 1009.9
20260905200717 91 86 3.0 11.0 0.00 0.06 0.00 67 1009.9
20260905200614 91 165 4.0 11.0 0.00 0.06 0.00 67 1009.9
20260905200513 91 120 4.0 11.0 0.00 0.06 0.00 68 1009.9
20260905200412 91 179 5.0 11.0 0.00 0.06 0.00 68 1010.0
20260905200311 91 90 6.0 11.0 0.00 0.06 0.00 68 1010.0
20260905200209 91 99 6.0 11.0 0.00 0.06 0.00 67 1010.0
20260905200107 91 110 6.0 11.0 0.00 0.06 0.00 67 1010.0
20260905200006 91 121 6.0 11.0 0.00 0.06 0.00 67 1010.0
20260905195903 91 113 6.0 10.0 0.00 0.06 0.00 67 1010.0
20260905195804 92 85 6.0 10.0 0.00 0.06 0.00 67 1010.0
20260905195702 92 96 6.0 10.0 0.00 0.06 0.00 66 1010.0
20260905195602 92 92 8.0 10.0 0.00 0.06 0.00 66 1010.0
20260905195503 92 93 3.0 7.0 0.00 0.06 0.00 64 1010.0
20260905195404 92 93 3.0 7.0 0.00 0.06 0.00 64 1010.0
20260905195306 92 106 2.0 7.0 0.00 0.06 0.00 64 1010.0
20260905195203 92 86 3.0 7.0 0.00 0.06 0.00 64 1009.9
20260905195104 92 85 3.0 7.0 0.00 0.06 0.00 63 1009.9
20260905195002 92 86 5.0 7.0 0.00 0.06 0.00 63 1010.0
20260905194903 92 100 4.0 7.0 0.00 0.06 0.00 63 1009.9
20260905194804 92 63 2.0 7.0 0.00 0.06 0.00 63 1009.9
20260905194702 92 224 2.0 7.0 0.00 0.06 0.00 64 1010.0
20260905194603 92 224 2.0 7.0 0.00 0.06 0.00 63 1010.0
20260905194503 92 166 3.0 7.0 0.00 0.06 0.00 64 1010.0
20260905194402 92 168 3.0 11.0 0.00 0.06 0.00 64 1010.0
20260905194302 92 124 4.0 11.0 0.00 0.06 0.00 63 1010.0
20260905194202 92 121 5.0 11.0 0.00 0.06 0.00 64 1010.0
20260905194103 92 100 3.0 11.0 0.00 0.06 0.00 63 1010.0
20260905194003 93 117 3.0 11.0 0.00 0.06 0.00 64 1010.0
20260905193903 93 179 5.0 11.0 0.00 0.06 0.00 64 1010.0
20260905193802 93 188 4.0 11.0 0.00 0.06 0.00 64 1010.0
20260905193703 93 158 3.0 11.0 0.00 0.06 0.00 64 1010.0
20260905193602 93 127 5.0 11.0 0.00 0.06 0.00 64 1010.1
20260905193505 93 100 6.0 11.0 0.00 0.06 0.00 64 1010.1
20260905193403 93 131 6.0 11.0 0.00 0.06 0.00 64 1010.0
20260905193303 93 104 8.0 13.0 0.00 0.06 0.00 63 1010.1
20260905193202 93 99 6.0 13.0 0.00 0.06 0.00 63 1010.0
20260905193103 94 121 4.0 13.0 0.00 0.06 0.00 63 1010.0
20260905193004 94 178 4.0 13.0 0.00 0.06 0.00 63 1009.9
20260905192903 94 148 3.0 13.0 0.00 0.06 0.00 63 1010.0
20260905192803 94 94 3.0 13.0 0.00 0.06 0.00 64 1010.0
20260905192703 93 116 3.0 13.0 0.00 0.06 0.00 63 1010.0
20260905192602 93 78 2.0 13.0 0.00 0.06 0.00 64 1010.0
20260905192502 93 72 5.0 13.0 0.00 0.06 0.00 63 1010.1
20260905192404 93 72 8.0 13.0 0.00 0.06 0.00 64 1010.2
20260905192306 93 92 6.0 11.0 0.00 0.06 0.00 65 1010.1
20260905192202 93 92 4.0 9.0 0.00 0.06 0.00 65 1010.2
20260905192102 92 140 4.0 9.0 0.00 0.06 0.00 65 1010.2
20260905192005 93 92 4.0 6.0 0.00 0.06 0.00 65 1010.3
20260905191902 93 154 4.0 7.0 0.00 0.06 0.00 65 1010.3
20260905191803 93 196 4.0 13.0 0.00 0.06 0.00 64 1010.3
20260905191703 93 116 4.0 13.0 0.00 0.06 0.00 65 1010.3
20260905191602 93 118 3.0 13.0 0.00 0.06 0.00 64 1010.3
20260905191502 93 113 3.0 13.0 0.00 0.06 0.00 66 1010.3
20260905191403 93 94 3.0 13.0 0.00 0.06 0.00 66 1010.3
20260905191302 93 121 3.0 13.0 0.00 0.06 0.00 66 1010.3
20260905191203 93 87 3.0 13.0 0.00 0.06 0.00 65 1010.4
20260905191103 93 155 4.0 13.0 0.00 0.06 0.00 65 1010.3
20260905191005 93 202 6.0 13.0 0.00 0.06 0.00 64 1010.4
20260905190903 93 209 6.0 13.0 0.00 0.06 0.00 64 1010.3
20260905190802 93 220 6.0 13.0 0.00 0.06 0.00 65 1010.3
20260905190703 93 120 6.0 11.0 0.00 0.06 0.00 65 1010.3
20260905190602 94 103 6.0 11.0 0.00 0.06 0.00 63 1010.4
20260905190502 94 96 6.0 11.0 0.00 0.06 0.00 63 1010.4
20260905190403 95 94 4.0 12.0 0.00 0.06 0.00 63 1010.4
20260905190302 95 138 5.0 13.0 0.00 0.06 0.00 62 1010.4
20260905190202 96 173 5.0 13.0 0.00 0.06 0.00 63 1010.5
20260905190005 95 175 5.0 13.0 0.00 0.06 0.00 64 1010.4
20260905185903 94 282 3.0 13.0 0.00 0.06 0.00 63 1010.5
20260905185803 94 16 2.0 13.0 0.00 0.06 0.00 63 1010.5
20260905185702 94 72 4.0 13.0 0.00 0.06 0.00 63 1010.5
20260905185602 94 71 6.0 13.0 0.00 0.06 0.00 62 1010.5
20260905185503 94 82 8.0 13.0 0.00 0.06 0.00 61 1010.5
20260905185403 95 85 6.0 13.0 0.00 0.06 0.00 61 1010.5
20260905185305 95 72 4.0 10.0 0.00 0.06 0.00 59 1010.6
20260905185203 95 120 3.0 10.0 0.00 0.06 0.00 58 1010.6
20260905185103 95 127 4.0 10.0 0.00 0.06 0.00 58 1010.7
20260905185003 96 118 4.0 10.0 0.00 0.06 0.00 59 1010.5
20260905184903 96 107 3.0 10.0 0.00 0.06 0.00 58 1010.5
20260905184802 96 110 2.0 10.0 0.00 0.06 0.00 58 1010.6
20260905184702 96 234 4.0 10.0 0.00 0.06 0.00 58 1010.5
20260905184603 96 63 4.0 10.0 0.00 0.06 0.00 58 1010.6
20260905184502 96 80 4.0 6.0 0.00 0.06 0.00 58 1010.7
20260905184403 96 97 3.0 6.0 0.00 0.06 0.00 58 1010.6
20260905184303 96 117 4.0 6.0 0.00 0.06 0.00 56 1010.6
20260905184203 96 96 3.0 6.0 0.00 0.06 0.00 57 1010.7
20260905184102 96 82 4.0 6.0 0.00 0.06 0.00 56 1010.7
20260905184003 96 79 3.0 6.0 0.00 0.06 0.00 56 1010.6
20260905183902 96 78 2.0 5.0 0.00 0.06 0.00 55 1010.7
20260905183803 96 72 2.0 5.0 0.00 0.06 0.00 55 1010.7
20260905183703 96 89 3.0 6.0 0.00 0.06 0.00 55 1010.8
20260905183603 96 125 3.0 9.0 0.00 0.06 0.00 54 1010.7
20260905183504 96 65 3.0 9.0 0.00 0.06 0.00 53 1010.7
20260905183404 97 110 2.0 9.0 0.00 0.06 0.00 54 1010.8
20260905183303 96 140 2.0 9.0 0.00 0.06 0.00 55 1010.7
20260905183203 96 176 2.0 9.0 0.00 0.06 0.00 56 1010.8
20260905183102 96 165 3.0 9.0 0.00 0.06 0.00 56 1010.8
20260905183002 96 180 2.0 9.0 0.00 0.06 0.00 56 1010.8
20260905182902 96 240 3.0 9.0 0.00 0.06 0.00 55 1010.8
20260905182803 96 265 6.0 9.0 0.00 0.06 0.00 56 1010.9
20260905182702 96 245 5.0 9.0 0.00 0.06 0.00 56 1010.9
20260905182602 97 230 2.0 6.0 0.00 0.06 0.00 55 1010.9
20260905182502 97 124 2.0 5.0 0.00 0.06 0.00 54 1010.9
20260905182403 97 104 3.0 5.0 0.00 0.06 0.00 53 1011.0
20260905182305 98 147 3.0 5.0 0.00 0.06 0.00 54 1011.0
20260905182201 97 124 2.0 5.0 0.00 0.06 0.00 55 1011.0
20260905182103 96 262 1.0 5.0 0.00 0.06 0.00 55 1011.0
20260905182003 96 262 1.0 5.0 0.00 0.06 0.00 55 1011.0
20260905181903 96 262 1.0 5.0 0.00 0.06 0.00 55 1011.0
20260905181803 96 262 1.0 5.0 0.00 0.06 0.00 55 1011.1
20260905181702 96 142 1.0 5.0 0.00 0.06 0.00 54 1011.1
20260905181603 96 175 2.0 5.0 0.00 0.06 0.00 54 1011.1
20260905181504 96 175 2.0 5.0 0.00 0.06 0.00 55 1011.2
20260905181403 96 228 2.0 5.0 0.00 0.06 0.00 56 1011.2
20260905181303 96 279 3.0 5.0 0.00 0.06 0.00 57 1011.2
20260905181203 96 259 2.0 5.0 0.00 0.06 0.00 57 1011.3
20260905181102 96 231 2.0 5.0 0.00 0.06 0.00 57 1011.3
20260905181002 96 45 2.0 5.0 0.00 0.06 0.00 57 1011.2
20260905180902 95 39 2.0 5.0 0.00 0.06 0.00 58 1011.3
20260905180803 95 71 3.0 5.0 0.00 0.06 0.00 58 1011.3
20260905180702 95 73 4.0 5.0 0.00 0.06 0.00 57 1011.3
20260905180602 96 82 3.0 5.0 0.00 0.06 0.00 58 1011.3
20260905180504 95 48 3.0 4.0 0.00 0.06 0.00 58 1011.3
20260905180403 95 68 2.0 4.0 0.00 0.06 0.00 59 1011.4
20260905180301 95 56 2.0 4.0 0.00 0.06 0.00 59 1011.4
20260905180203 95 56 2.0 4.0 0.00 0.06 0.00 60 1011.3
20260905180003 94 56 3.0 4.0 0.00 0.06 0.00 60 1011.4
20260905175903 94 56 3.0 4.0 0.00 0.06 0.00 59 1011.5
20260905175803 94 73 3.0 5.0 0.00 0.06 0.00 58 1011.5
20260905175701 94 80 3.0 5.0 0.00 0.06 0.00 59 1011.5
20260905175603 95 103 2.0 5.0 0.00 0.06 0.00 59 1011.5
20260905175502 95 25 1.0 6.0 0.00 0.06 0.00 59 1011.5
20260905175404 95 25 2.0 6.0 0.00 0.06 0.00 59 1011.5
20260905175306 95 24 2.0 6.0 0.00 0.06 0.00 59 1011.5
20260905175203 95 24 3.0 6.0 0.00 0.06 0.00 60 1011.6
20260905175104 95 24 2.0 6.0 0.00 0.06 0.00 60 1011.5
20260905175003 95 11 2.0 6.0 0.00 0.06 0.00 60 1011.6
20260905174902 95 11 2.0 6.0 0.00 0.06 0.00 60 1011.6
20260905174803 95 0 3.0 6.0 0.00 0.06 0.00 60 1011.6
20260905174702 95 0 4.0 6.0 0.00 0.06 0.00 61 1011.6
20260905174602 95 20 4.0 6.0 0.00 0.06 0.00 61 1011.7
20260905174503 95 21 3.0 6.0 0.00 0.06 0.00 61 1011.6
20260905174404 95 39 2.0 6.0 0.00 0.06 0.00 62 1011.7
20260905174304 94 13 3.0 6.0 0.00 0.06 0.00 61 1011.7
20260905174202 95 13 4.0 6.0 0.00 0.06 0.00 61 1011.7
20260905174103 94 344 4.0 6.0 0.00 0.06 0.00 62 1011.7
20260905174004 94 17 3.0 5.0 0.00 0.06 0.00 63 1011.7
20260905173902 94 0 3.0 5.0 0.00 0.06 0.00 63 1011.8
20260905173805 94 358 3.0 5.0 0.00 0.06 0.00 63 1011.9
20260905173702 94 331 3.0 5.0 0.00 0.06 0.00 63 1011.8
20260905173601 93 329 2.0 5.0 0.00 0.06 0.00 65 1011.8
20260905173503 93 347 2.0 5.0 0.00 0.06 0.00 64 1011.9
20260905173403 92 345 2.0 5.0 0.00 0.06 0.00 65 1011.8
20260905173302 92 345 3.0 5.0 0.00 0.06 0.00 64 1011.9
20260905173202 92 345 3.0 5.0 0.00 0.06 0.00 65 1011.9
20260905173103 92 347 3.0 5.0 0.00 0.06 0.00 65 1011.9
20260905173003 92 337 2.0 4.0 0.00 0.06 0.00 66 1011.9
20260905172902 92 1 1.0 3.0 0.00 0.06 0.00 65 1011.9
20260905172802 91 44 2.0 3.0 0.00 0.06 0.00 64 1011.9
20260905172702 91 44 2.0 3.0 0.00 0.06 0.00 65 1012.0
20260905172602 91 55 2.0 3.0 0.00 0.06 0.00 63 1011.9
20260905172502 91 55 1.0 4.0 0.00 0.06 0.00 62 1012.0
20260905172403 91 55 2.0 4.0 0.00 0.06 0.00 62 1012.0
20260905172305 91 55 2.0 4.0 0.00 0.06 0.00 62 1012.0
20260905172200 91 55 1.0 4.0 0.00 0.06 0.00 62 1012.0
20260905172059 91 55 1.0 4.0 0.00 0.06 0.00 64 1012.0
20260905171957 91 55 1.0 4.0 0.00 0.06 0.00 65 1012.0
20260905171856 91 45 1.0 4.0 0.00 0.06 0.00 64 1012.0
20260905171753 91 45 1.0 5.0 0.00 0.06 0.00 64 1012.0
20260905171651 91 45 2.0 5.0 0.00 0.06 0.00 63 1012.0
20260905171552 91 45 3.0 5.0 0.00 0.06 0.00 63 1012.0
20260905171449 91 44 2.0 5.0 0.00 0.06 0.00 63 1012.0
20260905171347 92 44 1.0 5.0 0.00 0.06 0.00 63 1012.0
20260905171247 92 44 1.0 5.0 0.00 0.06 0.00 63 1012.1
20260905171145 92 44 2.0 6.0 0.00 0.06 0.00 62 1012.1
20260905171043 92 44 2.0 6.0 0.00 0.06 0.00 62 1012.1
20260905170942 93 44 3.0 6.0 0.00 0.06 0.00 61 1012.1
20260905170841 94 44 2.0 6.0 0.00 0.06 0.00 60 1012.1
20260905170736 94 32 1.0 6.0 0.00 0.06 0.00 59 1012.2
20260905170633 94 4 2.0 6.0 0.00 0.06 0.00 58 1012.2
20260905170532 94 3 2.0 6.0 0.00 0.06 0.00 59 1012.2
20260905170430 94 3 3.0 6.0 0.00 0.06 0.00 59 1012.1
20260905170332 94 1 4.0 6.0 0.00 0.06 0.00 59 1012.1
20260905170228 94 6 4.0 6.0 0.00 0.06 0.00 59 1012.1
20260905170126 94 350 4.0 5.0 0.00 0.06 0.00 59 1012.1
20260905170026 94 340 3.0 5.0 0.00 0.06 0.00 61 1012.1
20260905165923 93 6 4.0 6.0 0.00 0.06 0.00 62 1012.1
20260905165823 93 18 3.0 6.0 0.00 0.06 0.00 62 1012.2
20260905165724 93 0 2.0 6.0 0.00 0.06 0.00 63 1012.1
20260905165624 93 347 1.0 6.0 0.00 0.06 0.00 65 1012.2
20260905165523 92 334 1.0 6.0 0.00 0.06 0.00 65 1012.2
20260905165424 92 334 2.0 6.0 0.00 0.06 0.00 64 1012.1
20260905165324 92 306 2.0 6.0 0.00 0.06 0.00 64 1012.2
20260905165223 93 306 2.0 6.0 0.00 0.06 0.00 64 1012.2
20260905165122 93 306 4.0 6.0 0.00 0.06 0.00 65 1012.2
20260905165025 93 307 5.0 6.0 0.00 0.06 0.00 65 1012.2
20260905164923 93 314 3.0 6.0 0.00 0.06 0.00 64 1012.2
20260905164823 93 330 2.0 4.0 0.00 0.06 0.00 63 1012.2
20260905164724 93 299 2.0 4.0 0.00 0.06 0.00 64 1012.2
20260905164624 92 337 1.0 4.0 0.00 0.06 0.00 65 1012.2
20260905164525 92 337 1.0 4.0 0.00 0.06 0.00 64 1012.2
20260905164424 92 314 2.0 4.0 0.00 0.06 0.00 63 1012.2
20260905164324 92 314 2.0 4.0 0.00 0.06 0.00 64 1012.2
20260905164223 91 314 2.0 4.0 0.00 0.06 0.00 64 1012.2
20260905164123 91 314 3.0 4.0 0.00 0.06 0.00 62 1012.2
20260905164024 92 316 3.0 4.0 0.00 0.06 0.00 63 1012.2
20260905163923 92 316 2.0 5.0 0.00 0.06 0.00 63 1012.2
20260905163823 92 319 0.0 5.0 0.00 0.06 0.00 62 1012.3
20260905163723 92 319 1.0 5.0 0.00 0.06 0.00 63 1012.2
20260905163624 92 319 2.0 5.0 0.00 0.06 0.00 64 1012.3
20260905163523 92 319 2.0 5.0 0.00 0.06 0.00 64 1012.3
20260905163423 92 319 2.0 5.0 0.00 0.06 0.00 65 1012.3
20260905163323 92 319 2.0 5.0 0.00 0.06 0.00 64 1012.3
20260905163223 92 317 2.0 5.0 0.00 0.06 0.00 64 1012.3
20260905163123 92 317 3.0 6.0 0.00 0.06 0.00 64 1012.3
20260905163022 92 317 3.0 6.0 0.00 0.06 0.00 63 1012.3
20260905162922 92 313 2.0 6.0 0.00 0.06 0.00 63 1012.3
20260905162823 92 331 2.0 6.0 0.00 0.06 0.00 63 1012.3
20260905162722 92 331 2.0 6.0 0.00 0.06 0.00 61 1012.3
20260905162624 92 331 2.0 6.0 0.00 0.06 0.00 61 1012.4
20260905162523 92 331 3.0 6.0 0.00 0.06 0.00 63 1012.3
20260905162423 92 331 3.0 6.0 0.00 0.06 0.00 64 1012.3
20260905162323 92 320 3.0 6.0 0.00 0.06 0.00 63 1012.3
20260905162223 92 326 3.0 6.0 0.00 0.06 0.00 65 1012.3
20260905162123 92 324 3.0 5.0 0.00 0.06 0.00 65 1012.3
20260905162022 92 326 3.0 5.0 0.00 0.06 0.00 64 1012.4
20260905161924 92 327 3.0 5.0 0.00 0.06 0.00 65 1012.3
20260905161823 92 313 3.0 5.0 0.00 0.06 0.00 67 1012.3
20260905161722 92 0 2.0 5.0 0.00 0.06 0.00 67 1012.3
20260905161623 92 6 2.0 5.0 0.00 0.06 0.00 67 1012.3
20260905161523 92 6 2.0 5.0 0.00 0.06 0.00 67 1012.3
20260905161422 92 6 2.0 5.0 0.00 0.06 0.00 67 1012.3
20260905161322 92 348 2.0 5.0 0.00 0.06 0.00 67 1012.3
20260905161224 92 347 2.0 5.0 0.00 0.06 0.00 68 1012.3
20260905161122 91 345 2.0 5.0 0.00 0.06 0.00 68 1012.3
20260905161024 91 345 2.0 5.0 0.00 0.06 0.00 68 1012.4
20260905160925 91 345 3.0 5.0 0.00 0.06 0.00 68 1012.4
20260905160822 91 0 3.0 5.0 0.00 0.06 0.00 69 1012.3
20260905160722 91 0 3.0 5.0 0.00 0.06 0.00 68 1012.3
20260905160622 91 0 3.0 5.0 0.00 0.06 0.00 68 1012.4
20260905160525 91 0 4.0 5.0 0.00 0.06 0.00 68 1012.4
20260905160421 91 345 4.0 5.0 0.00 0.06 0.00 69 1012.3
20260905160322 91 345 3.0 4.0 0.00 0.06 0.00 69 1012.3
20260905160223 91 324 2.0 4.0 0.00 0.06 0.00 69 1012.3
20260905160122 91 321 1.0 5.0 0.00 0.06 0.00 69 1012.3
20260905160022 91 313 1.0 5.0 0.00 0.06 0.00 69 1012.3
20260905155923 91 258 1.0 5.0 0.00 0.06 0.00 70 1012.3
20260905155822 91 258 1.0 5.0 0.00 0.06 0.00 71 1012.3
20260905155722 90 210 1.0 5.0 0.00 0.06 0.00 71 1012.3
20260905155621 90 124 2.0 6.0 0.00 0.06 0.00 72 1012.3
20260905155521 90 127 2.0 6.0 0.00 0.06 0.00 72 1012.3
20260905155422 90 165 3.0 6.0 0.00 0.06 0.00 72 1012.3
20260905155321 90 193 3.0 6.0 0.00 0.06 0.00 72 1012.3
20260905155221 90 227 4.0 6.0 0.00 0.06 0.00 72 1012.3
20260905155123 90 250 4.0 6.0 0.00 0.06 0.00 73 1012.3
20260905155021 89 238 4.0 6.0 0.00 0.06 0.00 74 1012.3
20260905154921 89 240 4.0 6.0 0.00 0.06 0.00 73 1012.4
20260905154822 89 200 4.0 6.0 0.00 0.06 0.00 73 1012.3
20260905154722 89 257 5.0 6.0 0.00 0.06 0.00 74 1012.3
20260905154621 89 250 5.0 6.0 0.00 0.06 0.00 75 1012.3
20260905154522 89 235 5.0 5.0 0.00 0.06 0.00 75 1012.3
20260905154422 89 251 3.0 4.0 0.00 0.06 0.00 75 1012.3
20260905154323 89 251 3.0 4.0 0.00 0.06 0.00 75 1012.3
20260905154222 89 251 3.0 4.0 0.00 0.06 0.00 75 1012.3
20260905154122 89 261 3.0 5.0 0.00 0.06 0.00 75 1012.3
20260905154022 89 265 3.0 5.0 0.00 0.06 0.00 76 1012.4
20260905153921 89 266 3.0 5.0 0.00 0.06 0.00 75 1012.5
20260905153821 89 282 1.0 5.0 0.00 0.06 0.00 77 1012.5
20260905153722 89 298 1.0 5.0 0.00 0.06 0.00 77 1012.5
20260905153622 89 298 0.0 5.0 0.00 0.06 0.00 77 1012.5
20260905153521 88 298 0.0 5.0 0.00 0.06 0.00 78 1012.5
20260905153423 88 298 1.0 5.0 0.00 0.06 0.00 78 1012.6
20260905153321 88 298 2.0 5.0 0.00 0.06 0.00 78 1012.5
20260905153222 88 298 3.0 5.0 0.00 0.06 0.00 78 1012.6
20260905153123 88 309 3.0 5.0 0.00 0.06 0.00 78 1012.5
20260905153021 88 309 3.0 5.0 0.00 0.06 0.00 78 1012.5
20260905152921 88 310 3.0 5.0 0.00 0.06 0.00 78 1012.5
20260905152821 88 312 3.0 5.0 0.00 0.06 0.00 78 1012.5
20260905152723 88 312 3.0 5.0 0.00 0.06 0.00 77 1012.5
20260905152621 88 313 2.0 5.0 0.00 0.06 0.00 78 1012.4
20260905152521 88 313 3.0 5.0 0.00 0.06 0.00 78 1012.5
20260905152423 88 313 3.0 5.0 0.00 0.06 0.00 79 1012.5
20260905152321 88 320 3.0 5.0 0.00 0.06 0.00 78 1012.4
20260905152221 88 317 4.0 5.0 0.00 0.06 0.00 79 1012.4
20260905152120 88 317 3.0 4.0 0.00 0.06 0.00 79 1012.4
20260905152023 88 347 3.0 4.0 0.00 0.06 0.00 79 1012.4
20260905151921 88 347 3.0 4.0 0.00 0.06 0.00 79 1012.4
20260905151820 88 323 1.0 4.0 0.00 0.06 0.00 79 1012.4
20260905151722 88 316 0.0 0.0 0.00 0.06 0.00 80 1012.4
20260905151622 87 312 0.0 0.0 0.00 0.06 0.00 80 1012.4
20260905151520 87 271 0.0 0.0 0.00 0.06 0.00 80 1012.5
20260905151420 87 271 0.0 0.0 0.00 0.06 0.00 80 1012.4
20260905151322 86 271 0.0 0.0 0.00 0.06 0.00 80 1012.4
20260905151222 86 271 0.0 0.0 0.00 0.06 0.00 80 1012.5
20260905151122 86 271 0.0 0.0 0.00 0.06 0.00 80 1012.5
20260905151021 86 271 0.0 0.0 0.00 0.06 0.00 80 1012.5
20260905150920 86 271 0.0 0.0 0.00 0.06 0.00 81 1012.4
20260905150820 86 271 0.0 0.0 0.00 0.06 0.00 81 1012.5
20260905150721 86 271 0.0 0.0 0.00 0.06 0.00 81 1012.5
20260905150621 86 271 0.0 0.0 0.00 0.06 0.00 82 1012.5
20260905150521 86 337 0.0 0.0 0.00 0.06 0.00 83 1012.5
20260905150420 86 337 0.0 0.0 0.00 0.06 0.00 83 1012.4
20260905150321 86 337 0.0 0.0 0.00 0.06 0.00 83 1012.5
20260905150221 86 337 0.0 0.0 0.00 0.06 0.00 83 1012.4
20260905150120 86 337 0.0 0.0 0.00 0.06 0.00 83 1012.4
20260905150020 86 337 0.0 0.0 0.00 0.06 0.00 83 1012.4
20260905145922 86 337 0.0 0.0 0.00 0.06 0.00 83 1012.4
20260905145820 86 337 0.0 0.0 0.00 0.06 0.00 83 1012.4
20260905145720 86 337 0.0 0.0 0.00 0.06 0.00 82 1012.4
20260905145622 86 337 0.0 0.0 0.00 0.06 0.00 82 1012.4
20260905145521 87 337 0.0 0.0 0.00 0.06 0.00 82 1012.4
20260905145422 87 337 0.0 0.0 0.00 0.06 0.00 82 1012.4
20260905145321 87 0 0.0 0.0 0.00 0.06 0.00 82 1012.4
20260905145223 87 0 0.0 0.0 0.00 0.06 0.00 82 1012.4
20260905145122 87 0 0.0 0.0 0.00 0.06 0.00 83 1012.3
20260905145021 87 25 0.0 0.0 0.00 0.06 0.00 83 1012.4
20260905144923 87 25 0.0 0.0 0.00 0.06 0.00 83 1012.4
20260905144821 87 27 0.0 0.0 0.00 0.06 0.00 84 1012.4
20260905144721 87 27 0.0 0.0 0.00 0.06 0.00 85 1012.3
20260905144621 86 27 0.0 0.0 0.00 0.06 0.00 84 1012.3
20260905144522 86 27 0.0 0.0 0.00 0.06 0.00 84 1012.3
20260905144420 86 27 0.0 0.0 0.00 0.06 0.00 85 1012.3
20260905144320 86 23 0.0 0.0 0.00 0.06 0.00 85 1012.3
20260905144219 86 0 0.0 0.0 0.00 0.06 0.00 85 1012.3
20260905144120 86 0 0.0 0.0 0.00 0.06 0.00 85 1012.3
20260905144020 86 0 0.0 0.0 0.00 0.06 0.00 85 1012.4
20260905143921 86 0 0.0 0.0 0.00 0.06 0.00 85 1012.3
20260905143821 86 0 0.0 0.0 0.00 0.06 0.00 85 1012.4
20260905143722 86 0 0.0 0.0 0.00 0.06 0.00 85 1012.4
20260905143620 86 0 0.0 0.0 0.00 0.06 0.00 85 1012.4
20260905143522 86 13 0.0 0.0 0.00 0.06 0.00 85 1012.4
20260905143419 86 14 0.0 0.0 0.00 0.06 0.00 85 1012.5
20260905143321 86 14 0.0 0.0 0.00 0.06 0.00 86 1012.4
20260905143221 85 49 0.0 0.0 0.00 0.06 0.00 87 1012.5
20260905143121 85 49 0.0 0.0 0.00 0.06 0.00 87 1012.6
20260905143020 85 49 0.0 0.0 0.00 0.06 0.00 87 1012.5
20260905142920 85 344 0.0 0.0 0.00 0.06 0.00 86 1012.5
20260905142820 85 345 0.0 0.0 0.00 0.06 0.00 86 1012.4
20260905142720 85 344 0.0 0.0 0.00 0.06 0.00 87 1012.5
20260905142620 85 345 0.0 0.0 0.00 0.06 0.00 87 1012.5
20260905142520 85 345 0.0 0.0 0.00 0.06 0.00 87 1012.5
20260905142420 85 345 0.0 0.0 0.00 0.06 0.00 87 1012.4
20260905142320 85 345 0.0 0.0 0.00 0.06 0.00 87 1012.4
20260905142219 85 345 0.0 2.0 0.00 0.06 0.00 87 1012.3
20260905142120 85 345 0.0 2.0 0.00 0.06 0.00 87 1012.4
20260905142020 85 345 0.0 3.0 0.00 0.06 0.00 87 1012.3
20260905141920 85 345 0.0 3.0 0.00 0.06 0.00 87 1012.4
20260905141819 85 345 0.0 3.0 0.00 0.06 0.00 87 1012.4
20260905141720 85 345 0.0 3.0 0.00 0.06 0.00 88 1012.4
20260905141620 85 345 0.0 3.0 0.00 0.06 0.00 88 1012.4
20260905141519 85 345 0.0 3.0 0.00 0.06 0.00 88 1012.3
20260905141420 84 345 0.0 3.0 0.00 0.06 0.00 88 1012.3
20260905141319 84 345 1.0 3.0 0.00 0.06 0.00 88 1012.3
20260905141219 84 345 2.0 4.0 0.00 0.06 0.00 88 1012.3
20260905141121 84 345 2.0 4.0 0.00 0.06 0.00 88 1012.4
20260905141019 84 343 2.0 4.0 0.00 0.06 0.00 88 1012.3
20260905140920 84 341 2.0 4.0 0.00 0.06 0.00 89 1012.4
20260905140820 84 341 2.0 4.0 0.00 0.06 0.00 89 1012.4
20260905140720 84 341 1.0 4.0 0.00 0.06 0.00 89 1012.3
20260905140620 84 340 0.0 4.0 0.00 0.06 0.00 89 1012.3
20260905140519 84 340 0.0 4.0 0.00 0.06 0.00 89 1012.3
20260905140420 84 340 1.0 4.0 0.00 0.06 0.00 90 1012.3
20260905140320 84 340 1.0 4.0 0.00 0.06 0.00 90 1012.3
20260905140219 84 331 0.0 3.0 0.00 0.06 0.00 90 1012.2
20260905140119 84 331 0.0 3.0 0.00 0.06 0.00 90 1012.3
20260905140021 84 331 0.0 3.0 0.00 0.06 0.00 90 1012.3
20260905135919 83 331 0.0 3.0 0.00 0.06 0.00 91 1012.2
20260905135819 83 331 0.0 3.0 0.00 0.06 0.00 91 1012.3
20260905135720 83 331 0.0 3.0 0.00 0.06 0.00 91 1012.2
20260905135619 83 331 0.0 3.0 0.00 0.06 0.00 91 1012.3
20260905135520 83 331 1.0 3.0 0.00 0.06 0.00 91 1012.2
20260905135420 83 331 1.0 3.0 0.00 0.06 0.00 91 1012.2
20260905135322 83 331 2.0 3.0 0.00 0.06 0.00 91 1012.2
20260905135219 83 331 1.0 3.0 0.00 0.06 0.00 92 1012.2
20260905135119 83 329 1.0 3.0 0.00 0.06 0.00 92 1012.2
20260905135019 83 329 1.0 3.0 0.00 0.06 0.00 92 1012.2
20260905134919 83 329 0.0 0.0 0.00 0.06 0.00 93 1012.2
20260905134819 83 329 0.0 0.0 0.00 0.06 0.00 93 1012.2
20260905134720 82 329 0.0 0.0 0.00 0.06 0.00 93 1012.2
20260905134618 82 329 0.0 0.0 0.00 0.06 0.00 93 1012.1
20260905134520 82 329 0.0 0.0 0.00 0.06 0.00 93 1012.2
20260905134418 82 329 0.0 0.0 0.00 0.06 0.00 93 1012.1
20260905134319 82 329 0.0 0.0 0.00 0.06 0.00 94 1012.1
20260905134218 82 329 0.0 0.0 0.00 0.06 0.00 94 1012.1
20260905134120 82 327 0.0 0.0 0.00 0.06 0.00 94 1012.1
20260905134018 82 327 0.0 1.0 0.00 0.06 0.00 95 1012.2
20260905133918 82 327 0.0 3.0 0.00 0.06 0.00 95 1012.2
20260905133820 82 327 0.0 4.0 0.00 0.06 0.00 95 1012.2
20260905133719 81 327 0.0 4.0 0.00 0.06 0.00 95 1012.1
20260905133619 81 327 0.0 4.0 0.00 0.06 0.00 95 1012.1
20260905133519 81 327 0.0 4.0 0.00 0.06 0.00 95 1012.1
20260905133418 81 327 0.0 4.0 0.00 0.06 0.00 95 1012.1
20260905133318 81 327 0.0 4.0 0.00 0.06 0.00 95 1012.1
20260905133218 81 327 0.0 4.0 0.00 0.06 0.00 95 1012.1
20260905133119 81 327 1.0 4.0 0.00 0.06 0.00 95 1012.1
20260905133019 81 327 2.0 4.0 0.00 0.06 0.00 95 1012.1
20260905132920 81 327 1.0 3.0 0.00 0.06 0.00 95 1012.1
20260905132820 81 323 0.0 2.0 0.00 0.06 0.00 95 1012.0
20260905132719 81 323 0.0 2.0 0.00 0.06 0.00 96 1012.1
20260905132620 81 307 0.0 2.0 0.00 0.06 0.00 96 1012.1
20260905132520 81 307 0.0 2.0 0.00 0.06 0.00 96 1012.1
20260905132418 81 307 0.0 2.0 0.00 0.06 0.00 96 1012.1
20260905132318 81 307 0.0 2.0 0.00 0.06 0.00 96 1012.2
20260905132220 81 307 0.0 2.0 0.00 0.06 0.00 96 1012.1
20260905132118 81 307 0.0 2.0 0.00 0.06 0.00 96 1012.1
20260905132020 81 307 0.0 2.0 0.00 0.06 0.00 96 1012.2
20260905131920 81 307 0.0 2.0 0.00 0.06 0.00 96 1012.1
20260905131819 81 307 0.0 1.0 0.00 0.06 0.00 96 1012.0
20260905131718 81 307 0.0 0.0 0.00 0.06 0.00 97 1012.1
20260905131619 80 307 0.0 0.0 0.00 0.06 0.00 97 1012.1
20260905131520 80 307 0.0 0.0 0.00 0.06 0.00 97 1012.0
20260905131418 80 307 0.0 0.0 0.00 0.06 0.00 97 1012.0
20260905131318 80 307 0.0 0.0 0.00 0.06 0.00 97 1012.0
20260905131219 80 307 0.0 0.0 0.00 0.06 0.00 97 1012.0
20260905131119 80 307 0.0 0.0 0.00 0.06 0.00 97 1012.1
20260905131019 80 307 0.0 0.0 0.00 0.06 0.00 97 1012.1
20260905130918 80 307 0.0 0.0 0.00 0.06 0.00 97 1012.0
20260905130819 80 307 0.0 0.0 0.00 0.06 0.00 97 1012.1
20260905130718 80 307 0.0 0.0 0.00 0.06 0.00 97 1012.0
20260905130618 80 307 0.0 0.0 0.00 0.06 0.00 97 1012.0
20260905130520 80 307 0.0 0.0 0.00 0.06 0.00 97 1012.0
20260905130419 79 307 0.0 0.0 0.00 0.06 0.00 97 1012.0
20260905130319 79 307 0.0 0.0 0.00 0.06 0.00 97 1012.0
20260905130219 79 307 0.0 0.0 0.00 0.06 0.00 97 1012.0
20260905130118 79 307 0.0 0.0 0.00 0.06 0.00 97 1012.0
20260905130019 79 307 0.0 0.0 0.00 0.06 0.00 97 1012.0
20260905125918 79 307 0.0 0.0 0.00 0.06 0.00 97 1012.0
20260905125818 79 307 0.0 0.0 0.00 0.06 0.00 97 1012.0
20260905125718 79 307 0.0 0.0 0.00 0.06 0.00 97 1012.0
20260905125618 79 307 0.0 0.0 0.00 0.06 0.00 97 1012.0
20260905125517 79 307 0.0 0.0 0.00 0.06 0.00 97 1011.9
20260905125419 78 307 0.0 0.0 0.00 0.06 0.00 97 1011.9
20260905125317 78 307 0.0 0.0 0.00 0.06 0.00 97 1011.9
20260905125217 78 307 0.0 0.0 0.00 0.06 0.00 97 1011.9
20260905125118 78 307 0.0 0.0 0.00 0.06 0.00 97 1011.9
20260905125017 78 307 0.0 0.0 0.00 0.06 0.00 97 1011.9
20260905124917 78 196 0.0 0.0 0.00 0.06 0.00 97 1011.9
20260905124817 78 0 0.0 0.0 0.00 0.06 0.00 97 1011.9
20260905124718 78 274 0.0 0.0 0.00 0.06 0.00 97 1011.9
20260905124617 78 305 0.0 0.0 0.00 0.06 0.00 97 1011.9
20260905124517 78 306 0.0 0.0 0.00 0.06 0.00 97 1012.0
20260905124419 78 298 0.0 0.0 0.00 0.06 0.00 97 1012.0
20260905124317 78 306 0.0 0.0 0.00 0.06 0.00 97 1012.0
20260905124217 78 306 0.0 0.0 0.00 0.06 0.00 97 1011.9
20260905124117 78 307 0.0 0.0 0.00 0.06 0.00 97 1012.0
20260905124017 78 307 0.0 0.0 0.00 0.06 0.00 97 1012.0
20260905123918 78 307 0.0 0.0 0.00 0.06 0.00 97 1011.9
20260905123817 78 307 0.0 0.0 0.00 0.06 0.00 97 1011.9
20260905123719 78 307 0.0 0.0 0.00 0.06 0.00 97 1011.9
20260905123617 78 303 0.0 0.0 0.00 0.06 0.00 97 1011.9
20260905123519 78 306 0.0 0.0 0.00 0.06 0.00 97 1011.9
20260905123417 78 306 0.0 0.0 0.00 0.06 0.00 97 1011.8
20260905123317 78 306 0.0 0.0 0.00 0.06 0.00 97 1011.8
20260905123217 78 306 0.0 0.0 0.00 0.06 0.00 97 1011.8
20260905123117 78 306 0.0 0.0 0.00 0.06 0.00 97 1011.8